DL9MFL-6 Weather Reports


time (UTC)temp
F
wind
direction
speed
knots
gust
knots
rain 1hr
in
rain 24hr
in
rain mn
in
humidity
%
barometer
mb
20260903135740 77 196 6.1 12.2 0.00 0.00 0.00 49 1020.1
20260903135634 76 273 7.0 12.2 0.00 0.00 0.00 50 1020.1
20260903135534 76 244 7.0 12.2 0.00 0.00 0.00 50 1020.1
20260903135434 76 264 7.0 13.0 0.00 0.00 0.00 50 1020.1
20260903135336 76 252 7.0 16.5 0.00 0.00 0.00 50 1020.1
20260903135331 76 237 7.0 16.5 0.00 0.00 0.00 50 1020.1
20260903135233 76 265 7.0 16.5 0.00 0.00 0.00 51 1020.1
20260903135134 76 221 7.0 16.5 0.00 0.00 0.00 51 1020.1
20260903135031 76 202 7.0 16.5 0.00 0.00 0.00 51 1020.1
20260903134932 76 275 7.0 16.5 0.00 0.00 0.00 51 1020.1
20260903134834 76 221 7.0 16.5 0.00 0.00 0.00 50 1020.1
20260903134830 76 229 7.0 16.5 0.00 0.00 0.00 50 1020.1
20260903134732 76 235 7.0 16.5 0.00 0.00 0.00 50 1020.1
20260903134632 76 239 7.0 16.5 0.00 0.00 0.00 50 1020.1
20260903134530 76 192 7.0 16.5 0.00 0.00 0.00 51 1020.1
20260903134430 76 233 7.0 13.9 0.00 0.00 0.00 51 1020.1
20260903134330 76 246 7.0 11.3 0.00 0.00 0.00 52 1020.2
20260903134229 76 209 7.0 11.3 0.00 0.00 0.00 51 1020.1
20260903134129 76 255 7.0 11.3 0.00 0.00 0.00 50 1020.2
20260903134030 76 279 7.0 12.2 0.00 0.00 0.00 50 1020.3
20260903133931 75 219 7.0 12.2 0.00 0.00 0.00 50 1020.3
20260903133829 75 263 7.0 12.2 0.00 0.00 0.00 51 1020.2
20260903133729 75 273 7.8 12.2 0.00 0.00 0.00 50 1020.2
20260903133629 75 265 7.8 12.2 0.00 0.00 0.00 51 1020.2
20260903133529 75 278 7.8 13.0 0.00 0.00 0.00 51 1020.1
20260903133429 75 256 7.8 13.0 0.00 0.00 0.00 51 1020.1
20260903133330 75 267 7.8 13.0 0.00 0.00 0.00 51 1020.1
20260903133229 75 271 7.8 13.0 0.00 0.00 0.00 51 1020.1
20260903133129 75 246 7.8 13.0 0.00 0.00 0.00 50 1020.1
20260903133028 75 264 7.0 13.0 0.00 0.00 0.00 51 1020.2
20260903132929 75 229 7.0 13.0 0.00 0.00 0.00 51 1020.1
20260903132829 75 266 7.0 13.0 0.00 0.00 0.00 52 1020.1
20260903132729 75 264 6.1 13.0 0.00 0.00 0.00 51 1020.1
20260903132629 75 274 6.1 13.0 0.00 0.00 0.00 51 1020.2
20260903132529 75 255 6.1 10.4 0.00 0.00 0.00 52 1020.2
20260903132429 75 262 6.1 10.4 0.00 0.00 0.00 52 1020.3
20260903132330 75 252 6.1 10.4 0.00 0.00 0.00 53 1020.2
20260903132228 75 278 6.1 10.4 0.00 0.00 0.00 53 1020.2
20260903132128 75 284 6.1 10.4 0.00 0.00 0.00 53 1020.2
20260903132029 75 227 6.1 10.4 0.00 0.00 0.00 53 1020.1
20260903131928 75 276 7.0 10.4 0.00 0.00 0.00 53 1020.2
20260903131828 75 244 7.0 10.4 0.00 0.00 0.00 52 1020.3
20260903131724 75 235 6.1 10.4 0.00 0.00 0.00 53 1020.3
20260903131625 75 219 6.1 10.4 0.00 0.00 0.00 52 1020.2
20260903131524 75 260 7.0 11.3 0.00 0.00 0.00 52 1020.2
20260903131424 75 271 6.1 11.3 0.00 0.00 0.00 52 1020.4
20260903131324 75 223 6.1 11.3 0.00 0.00 0.00 53 1020.3
20260903131217 75 270 6.1 11.3 0.00 0.00 0.00 53 1020.3
20260903131118 75 241 6.1 11.3 0.00 0.00 0.00 52 1020.3
20260903131017 75 260 6.1 11.3 0.00 0.00 0.00 54 1020.3
20260903130917 75 259 6.1 11.3 0.00 0.00 0.00 53 1020.3
20260903130817 75 238 6.1 11.3 0.00 0.00 0.00 53 1020.4
20260903130714 75 275 6.1 11.3 0.00 0.00 0.00 53 1020.3
20260903130616 75 275 6.1 10.4 0.00 0.00 0.00 53 1020.3
20260903130514 75 255 6.1 10.4 0.00 0.00 0.00 53 1020.3
20260903130414 75 207 7.0 10.4 0.00 0.00 0.00 53 1020.3
20260903130312 75 236 7.0 13.0 0.00 0.00 0.00 53 1020.3
20260903130212 75 284 7.0 13.0 0.00 0.00 0.00 52 1020.3
20260903130111 75 260 7.0 13.0 0.00 0.00 0.00 52 1020.3
20260903130012 75 281 7.0 13.0 0.00 0.00 0.00 52 1020.2
20260903125912 75 238 7.0 13.0 0.00 0.00 0.00 52 1020.3
20260903125812 75 276 7.0 13.0 0.00 0.00 0.00 53 1020.3
20260903125807 75 251 7.0 13.0 0.00 0.00 0.00 53 1020.3
20260903125709 75 269 7.0 13.0 0.00 0.00 0.00 52 1020.2
20260903125609 75 240 7.0 13.0 0.00 0.00 0.00 52 1020.3
20260903125510 75 261 7.0 13.0 0.00 0.00 0.00 51 1020.3
20260903125410 75 279 7.0 13.0 0.00 0.00 0.00 52 1020.3
20260903125308 75 277 7.0 11.3 0.00 0.00 0.00 52 1020.3
20260903125208 75 259 7.0 11.3 0.00 0.00 0.00 52 1020.2
20260903125108 75 243 7.0 11.3 0.00 0.00 0.00 52 1020.2
20260903125008 75 306 7.0 11.3 0.00 0.00 0.00 52 1020.2
20260903124908 75 246 6.1 11.3 0.00 0.00 0.00 52 1020.2
20260903124808 75 246 6.1 11.3 0.00 0.00 0.00 52 1020.1
20260903124753 75 286 6.1 12.2 0.00 0.00 0.00 51 1020.1
20260903124746 75 271 6.1 11.3 0.00 0.00 0.00 51 1020.2
20260903124742 75 260 6.1 11.3 0.00 0.00 0.00 52 1020.2
20260903124521 75 273 6.1 12.2 0.00 0.00 0.00 52 1020.2
20260903124517 75 260 6.1 12.2 0.00 0.00 0.00 52 1020.1
20260903124301 75 275 6.1 12.2 0.00 0.00 0.00 51 1020.1
20260903124202 75 279 6.1 12.2 0.00 0.00 0.00 51 1020.1
20260903124102 75 257 6.1 12.2 0.00 0.00 0.00 52 1020.2
20260903124001 75 259 6.1 12.2 0.00 0.00 0.00 52 1020.2
20260903123902 75 284 6.1 12.2 0.00 0.00 0.00 52 1020.1
20260903123806 75 311 6.1 12.2 0.00 0.00 0.00 51 1020.1
20260903123801 75 321 6.1 12.2 0.00 0.00 0.00 51 1020.1
20260903123701 75 338 6.1 12.2 0.00 0.00 0.00 51 1020.1
20260903123601 75 275 6.1 12.2 0.00 0.00 0.00 51 1020.2
20260903123501 75 257 5.2 12.2 0.00 0.00 0.00 50 1020.2
20260903123401 76 278 5.2 12.2 0.00 0.00 0.00 51 1020.2
20260903123305 76 283 5.2 12.2 0.00 0.00 0.00 51 1020.3
20260903123301 76 273 5.2 12.2 0.00 0.00 0.00 51 1020.3
20260903123201 76 288 5.2 12.2 0.00 0.00 0.00 51 1020.2
20260903123102 76 271 5.2 10.4 0.00 0.00 0.00 51 1020.2
20260903123001 76 280 5.2 10.4 0.00 0.00 0.00 52 1020.2
20260903122901 76 256 5.2 10.4 0.00 0.00 0.00 52 1020.2
20260903122805 76 275 5.2 10.4 0.00 0.00 0.00 51 1020.2
20260903122801 76 296 5.2 10.4 0.00 0.00 0.00 51 1020.2
20260903122701 76 289 5.2 10.4 0.00 0.00 0.00 52 1020.2
20260903122601 76 243 5.2 10.4 0.00 0.00 0.00 51 1020.2
20260903122501 76 254 6.1 10.4 0.00 0.00 0.00 50 1020.3
20260903122401 76 280 6.1 12.2 0.00 0.00 0.00 51 1020.2
20260903122305 76 283 6.1 12.2 0.00 0.00 0.00 51 1020.3
20260903122300 76 271 6.1 12.2 0.00 0.00 0.00 51 1020.3
20260903122200 76 253 6.1 12.2 0.00 0.00 0.00 51 1020.3
20260903122100 76 296 7.0 13.0 0.00 0.00 0.00 50 1020.2
20260903122000 76 271 7.0 13.0 0.00 0.00 0.00 50 1020.3
20260903121858 76 250 7.0 13.0 0.00 0.00 0.00 50 1020.3
20260903121801 76 252 7.0 13.0 0.00 0.00 0.00 50 1020.3
20260903121753 76 268 7.0 13.0 0.00 0.00 0.00 50 1020.3
20260903121652 76 266 7.8 13.0 0.00 0.00 0.00 50 1020.3
20260903121551 76 266 7.8 13.0 0.00 0.00 0.00 50 1020.3
20260903121453 76 271 7.0 13.0 0.00 0.00 0.00 50 1020.3
20260903121352 76 238 7.8 13.0 0.00 0.00 0.00 50 1020.2
20260903121302 76 269 7.8 13.0 0.00 0.00 0.00 50 1020.3
20260903121245 76 265 7.8 13.0 0.00 0.00 0.00 50 1020.3
20260903121146 76 256 7.8 13.0 0.00 0.00 0.00 49 1020.3
20260903121045 76 282 7.8 13.9 0.00 0.00 0.00 50 1020.4
20260903121025 76 255 7.8 13.9 0.00 0.00 0.00 50 1020.4
20260903121020 76 240 7.8 13.9 0.00 0.00 0.00 50 1020.4
20260903121014 76 240 7.8 13.9 0.00 0.00 0.00 50 1020.4
20260903120746 76 284 7.8 13.9 0.00 0.00 0.00 50 1020.4
20260903120645 76 279 7.8 13.9 0.00 0.00 0.00 49 1020.4
20260903120545 76 317 7.8 13.9 0.00 0.00 0.00 48 1020.3
20260903120526 76 267 7.8 13.9 0.00 0.00 0.00 48 1020.3
20260903120517 76 263 7.8 13.9 0.00 0.00 0.00 49 1020.3
20260903120513 76 249 7.8 13.9 0.00 0.00 0.00 49 1020.3
20260903120246 76 271 7.8 13.9 0.00 0.00 0.00 48 1020.3
20260903120144 76 256 7.8 13.9 0.00 0.00 0.00 48 1020.4
20260903120045 76 284 7.8 13.9 0.00 0.00 0.00 49 1020.4
20260903120029 76 256 8.7 15.6 0.00 0.00 0.00 49 1020.4
20260903120018 76 291 8.7 15.6 0.00 0.00 0.00 49 1020.4
20260903120014 76 275 8.7 15.6 0.00 0.00 0.00 49 1020.5
20260903115743 76 261 8.7 15.6 0.00 0.00 0.00 49 1020.4
20260903115643 76 297 8.7 15.6 0.00 0.00 0.00 50 1020.4
20260903115538 76 246 8.7 15.6 0.00 0.00 0.00 48 1020.5
20260903115437 76 288 7.8 15.6 0.00 0.00 0.00 48 1020.4
20260903115337 76 273 7.8 15.6 0.00 0.00 0.00 49 1020.4
20260903115305 76 263 7.8 15.6 0.00 0.00 0.00 48 1020.4
20260903115238 76 244 7.8 15.6 0.00 0.00 0.00 48 1020.4
20260903115138 76 242 7.8 15.6 0.00 0.00 0.00 48 1020.4
20260903115036 76 257 7.8 15.6 0.00 0.00 0.00 48 1020.5
20260903114936 76 298 7.0 13.0 0.00 0.00 0.00 48 1020.5
20260903114836 76 248 7.0 13.0 0.00 0.00 0.00 48 1020.5
20260903114801 76 220 7.0 13.0 0.00 0.00 0.00 48 1020.5
20260903114736 76 214 7.0 13.0 0.00 0.00 0.00 49 1020.5
20260903114636 76 256 7.0 13.0 0.00 0.00 0.00 49 1020.5
20260903114536 76 277 7.0 13.0 0.00 0.00 0.00 48 1020.5
20260903114525 76 269 7.0 13.0 0.00 0.00 0.00 48 1020.5
20260903114516 76 312 7.0 13.0 0.00 0.00 0.00 48 1020.5
20260903114512 76 285 7.0 13.0 0.00 0.00 0.00 48 1020.5
20260903114236 76 323 7.0 13.0 0.00 0.00 0.00 48 1020.5
20260903114136 76 257 7.0 13.0 0.00 0.00 0.00 48 1020.5
20260903114036 76 289 7.0 13.0 0.00 0.00 0.00 49 1020.6
20260903114029 76 269 7.8 13.0 0.00 0.00 0.00 49 1020.7
20260903114018 76 275 7.0 13.0 0.00 0.00 0.00 49 1020.6
20260903114013 76 263 7.0 13.0 0.00 0.00 0.00 49 1020.6
20260903113732 76 281 7.8 13.0 0.00 0.00 0.00 49 1020.7
20260903113632 76 236 7.0 13.0 0.00 0.00 0.00 50 1020.7
20260903113531 76 250 7.0 13.0 0.00 0.00 0.00 50 1020.6
20260903113432 76 260 7.0 13.0 0.00 0.00 0.00 50 1020.6
20260903113332 76 315 7.8 13.0 0.00 0.00 0.00 49 1020.5
20260903113302 76 267 7.8 13.0 0.00 0.00 0.00 50 1020.6
20260903113231 76 222 7.8 13.0 0.00 0.00 0.00 49 1020.6
20260903113131 76 306 7.8 13.9 0.00 0.00 0.00 49 1020.6
20260903113031 76 324 7.8 13.9 0.00 0.00 0.00 49 1020.7
20260903112931 76 274 7.8 13.9 0.00 0.00 0.00 48 1020.6
20260903112831 76 262 7.8 13.9 0.00 0.00 0.00 49 1020.7
20260903112801 76 263 7.8 13.9 0.00 0.00 0.00 49 1020.7
20260903112732 76 263 7.8 13.9 0.00 0.00 0.00 49 1020.7
20260903112632 76 240 7.8 13.9 0.00 0.00 0.00 51 1020.7
20260903112532 76 258 7.8 13.9 0.00 0.00 0.00 50 1020.6
20260903112432 76 278 7.8 13.9 0.00 0.00 0.00 49 1020.6
20260903112332 76 281 7.8 13.9 0.00 0.00 0.00 49 1020.7
20260903112305 76 315 7.0 13.9 0.00 0.00 0.00 49 1020.7
20260903112232 76 275 7.0 13.9 0.00 0.00 0.00 49 1020.7
20260903112132 76 281 7.0 12.2 0.00 0.00 0.00 52 1020.8
20260903112031 76 296 7.0 12.2 0.00 0.00 0.00 51 1020.8
20260903111932 76 329 7.0 13.0 0.00 0.00 0.00 52 1020.8
20260903111832 76 261 7.0 13.0 0.00 0.00 0.00 52 1020.8
20260903111802 76 239 7.0 13.0 0.00 0.00 0.00 52 1020.8
20260903111730 76 262 7.0 13.0 0.00 0.00 0.00 52 1020.8
20260903111629 76 275 7.8 13.0 0.00 0.00 0.00 51 1020.8
20260903111529 76 246 7.8 13.0 0.00 0.00 0.00 51 1020.9
20260903111429 76 263 7.8 13.0 0.00 0.00 0.00 51 1020.9
20260903111329 76 273 7.8 15.6 0.00 0.00 0.00 52 1020.8
20260903111302 76 238 7.0 15.6 0.00 0.00 0.00 52 1020.7
20260903111229 76 282 7.0 15.6 0.00 0.00 0.00 51 1020.7
20260903111129 76 238 7.0 15.6 0.00 0.00 0.00 52 1020.7
20260903111029 75 254 7.0 15.6 0.00 0.00 0.00 51 1020.7
20260903110929 75 245 7.0 15.6 0.00 0.00 0.00 52 1020.7
20260903110830 75 227 7.0 17.4 0.00 0.00 0.00 53 1020.8
20260903110802 75 251 7.0 17.4 0.00 0.00 0.00 53 1020.8
20260903110729 75 252 7.0 17.4 0.00 0.00 0.00 52 1020.8
20260903110629 75 234 7.0 17.4 0.00 0.00 0.00 52 1020.8
20260903110529 75 303 7.0 17.4 0.00 0.00 0.00 52 1020.7
20260903110429 75 232 7.8 17.4 0.00 0.00 0.00 52 1020.7
20260903110329 75 215 7.8 17.4 0.00 0.00 0.00 53 1020.7
20260903110302 75 225 7.8 17.4 0.00 0.00 0.00 53 1020.7
20260903110229 75 251 7.8 17.4 0.00 0.00 0.00 54 1020.7
20260903110129 75 252 8.7 17.4 0.00 0.00 0.00 53 1020.7
20260903110026 75 297 8.7 17.4 0.00 0.00 0.00 52 1020.7
20260903105926 75 213 9.6 17.4 0.00 0.00 0.00 52 1020.7
20260903105826 75 247 9.6 18.2 0.00 0.00 0.00 53 1020.7
20260903105801 75 245 9.6 18.2 0.00 0.00 0.00 53 1020.8
20260903105726 75 254 9.6 18.2 0.00 0.00 0.00 53 1020.8
20260903105626 75 298 9.6 18.2 0.00 0.00 0.00 52 1020.7
20260903105525 75 252 9.6 18.2 0.00 0.00 0.00 53 1020.8
20260903105426 75 288 9.6 18.2 0.00 0.00 0.00 52 1020.8
20260903105326 75 281 9.6 18.2 0.00 0.00 0.00 52 1020.8
20260903105301 75 262 9.6 18.2 0.00 0.00 0.00 52 1020.8
20260903105225 75 267 9.6 18.2 0.00 0.00 0.00 53 1020.8
20260903105125 75 263 8.7 18.2 0.00 0.00 0.00 52 1020.9
20260903105025 75 287 8.7 18.2 0.00 0.00 0.00 53 1020.9
20260903105019 74 244 8.7 16.5 0.00 0.00 0.00 54 1020.8
20260903105011 75 264 7.8 18.2 0.00 0.00 0.00 53 1020.8
20260903105007 75 228 7.8 13.9 0.00 0.00 0.00 53 1020.8
20260903105003 75 277 7.8 13.9 0.00 0.00 0.00 53 1020.8
20260903104748 74 262 8.7 16.5 0.00 0.00 0.00 54 1020.8
20260903104744 75 254 7.8 13.9 0.00 0.00 0.00 53 1020.8
20260903104740 74 248 7.8 13.9 0.00 0.00 0.00 53 1020.8
20260903104736 74 279 7.8 14.8 0.00 0.00 0.00 55 1020.8
20260903104727 74 272 7.8 14.8 0.00 0.00 0.00 54 1020.8
20260903104723 74 258 8.7 14.8 0.00 0.00 0.00 54 1020.8
20260903104249 74 299 8.7 16.5 0.00 0.00 0.00 54 1020.9
20260903104245 74 227 8.7 16.5 0.00 0.00 0.00 54 1020.9
20260903104025 74 278 8.7 16.5 0.00 0.00 0.00 54 1020.8
20260903104017 74 269 8.7 16.5 0.00 0.00 0.00 53 1020.9
20260903104013 74 230 8.7 16.5 0.00 0.00 0.00 54 1020.8
20260903103721 74 275 8.7 16.5 0.00 0.00 0.00 53 1020.9
20260903103621 74 261 8.7 16.5 0.00 0.00 0.00 53 1020.8
20260903103521 74 261 8.7 16.5 0.00 0.00 0.00 53 1020.9
20260903103422 74 270 8.7 16.5 0.00 0.00 0.00 53 1020.8
20260903103321 74 289 8.7 16.5 0.00 0.00 0.00 53 1020.8
20260903103301 74 275 8.7 13.9 0.00 0.00 0.00 53 1020.8
20260903103221 74 267 8.7 13.9 0.00 0.00 0.00 54 1020.8
20260903103121 74 294 8.7 13.9 0.00 0.00 0.00 53 1020.7
20260903103021 74 281 8.7 13.9 0.00 0.00 0.00 54 1020.8
20260903102921 74 279 8.7 13.9 0.00 0.00 0.00 53 1020.7
20260903102821 74 281 8.7 13.0 0.00 0.00 0.00 53 1020.8
20260903102802 74 257 8.7 13.0 0.00 0.00 0.00 53 1020.8
20260903102721 74 249 8.7 13.0 0.00 0.00 0.00 53 1020.8
20260903102622 74 257 8.7 13.0 0.00 0.00 0.00 53 1020.8
20260903102522 74 290 7.8 13.0 0.00 0.00 0.00 53 1020.7
20260903102421 74 267 7.8 13.0 0.00 0.00 0.00 54 1020.8
20260903102322 74 302 7.8 13.0 0.00 0.00 0.00 54 1020.8
20260903102305 74 247 7.8 13.0 0.00 0.00 0.00 54 1020.8
20260903102217 74 272 7.8 12.2 0.00 0.00 0.00 54 1020.8
20260903102117 74 265 7.0 12.2 0.00 0.00 0.00 55 1020.8
20260903102033 74 283 7.0 12.2 0.00 0.00 0.00 55 1020.8
20260903102025 74 221 7.0 12.2 0.00 0.00 0.00 54 1020.8
20260903102017 74 325 7.0 12.2 0.00 0.00 0.00 54 1020.8
20260903102013 74 288 7.0 12.2 0.00 0.00 0.00 55 1020.8
20260903101758 73 269 6.1 11.3 0.00 0.00 0.00 57 1020.9
20260903101745 74 303 6.1 12.2 0.00 0.00 0.00 56 1020.9
20260903101742 74 257 6.1 12.2 0.00 0.00 0.00 56 1020.9
20260903101524 74 257 6.1 12.2 0.00 0.00 0.00 56 1020.9
20260903101516 73 263 6.1 11.3 0.00 0.00 0.00 56 1020.9
20260903101512 73 225 6.1 11.3 0.00 0.00 0.00 57 1020.9
20260903101218 73 260 6.1 11.3 0.00 0.00 0.00 55 1020.9
20260903101117 73 227 7.0 11.3 0.00 0.00 0.00 55 1021.0
20260903101017 73 275 6.1 11.3 0.00 0.00 0.00 56 1021.0
20260903100918 73 258 6.1 11.3 0.00 0.00 0.00 55 1021.0
20260903100817 73 289 6.1 10.4 0.00 0.00 0.00 56 1020.9
20260903100801 73 255 6.1 10.4 0.00 0.00 0.00 55 1020.9
20260903100717 73 259 7.0 10.4 0.00 0.00 0.00 55 1020.9
20260903100617 73 287 7.0 11.3 0.00 0.00 0.00 55 1021.0
20260903100517 73 256 7.0 11.3 0.00 0.00 0.00 55 1021.0
20260903100421 73 295 7.0 11.3 0.00 0.00 0.00 55 1021.0
20260903100313 73 268 7.0 11.3 0.00 0.00 0.00 55 1020.9
20260903100302 73 254 7.0 11.3 0.00 0.00 0.00 55 1020.9
20260903100213 73 305 6.1 11.3 0.00 0.00 0.00 56 1020.9
20260903100114 73 244 6.1 11.3 0.00 0.00 0.00 56 1020.9
20260903100014 73 285 7.0 11.3 0.00 0.00 0.00 56 1020.9
20260903095914 73 300 7.0 12.2 0.00 0.00 0.00 55 1020.9
20260903095814 73 282 7.0 12.2 0.00 0.00 0.00 55 1021.0
20260903095802 73 257 7.0 12.2 0.00 0.00 0.00 55 1021.0
20260903095714 73 262 7.0 12.2 0.00 0.00 0.00 56 1021.1
20260903095614 73 283 7.0 12.2 0.00 0.00 0.00 56 1021.0
20260903095531 72 292 7.8 12.2 0.00 0.00 0.00 56 1021.1
20260903095526 72 250 7.8 12.2 0.00 0.00 0.00 56 1021.1
20260903095522 72 281 7.0 12.2 0.00 0.00 0.00 56 1021.1
20260903095514 72 223 7.8 12.2 0.00 0.00 0.00 56 1021.1
20260903095210 72 276 7.8 12.2 0.00 0.00 0.00 56 1021.1
20260903095104 72 275 7.8 12.2 0.00 0.00 0.00 56 1021.1
20260903095004 72 258 7.0 12.2 0.00 0.00 0.00 55 1021.1
20260903094904 72 261 7.0 12.2 0.00 0.00 0.00 56 1021.2
20260903094802 72 269 7.0 12.2 0.00 0.00 0.00 55 1021.1
20260903094701 72 265 7.0 13.9 0.00 0.00 0.00 55 1021.1
20260903094601 72 222 7.0 13.9 0.00 0.00 0.00 56 1021.1
20260903094528 72 271 6.1 13.9 0.00 0.00 0.00 57 1021.1
20260903094523 72 234 7.0 13.9 0.00 0.00 0.00 56 1021.0
20260903094516 72 255 7.0 13.9 0.00 0.00 0.00 56 1021.0
20260903094508 72 282 7.0 13.9 0.00 0.00 0.00 56 1021.1
20260903094246 72 266 6.1 13.9 0.00 0.00 0.00 57 1021.1
20260903094242 72 309 6.1 13.9 0.00 0.00 0.00 56 1021.0
20260903094026 72 259 6.1 13.9 0.00 0.00 0.00 56 1021.0
20260903094022 72 298 6.1 13.9 0.00 0.00 0.00 56 1021.0
20260903094015 72 271 6.1 13.9 0.00 0.00 0.00 57 1021.1
20260903093701 72 263 5.2 10.4 0.00 0.00 0.00 57 1021.1
20260903093601 72 257 5.2 10.4 0.00 0.00 0.00 57 1021.1
20260903093501 72 297 5.2 10.4 0.00 0.00 0.00 59 1021.1
20260903093403 71 306 5.2 10.4 0.00 0.00 0.00 60 1021.1
20260903093301 71 282 5.2 10.4 0.00 0.00 0.00 60 1021.1
20260903093201 71 284 5.2 10.4 0.00 0.00 0.00 59 1021.1
20260903093100 71 229 5.2 10.4 0.00 0.00 0.00 59 1021.0
20260903093000 71 262 5.2 10.4 0.00 0.00 0.00 58 1021.1
20260903092901 71 209 5.2 10.4 0.00 0.00 0.00 57 1021.1
20260903092801 71 211 5.2 10.4 0.00 0.00 0.00 59 1021.1
20260903092757 71 206 5.2 10.4 0.00 0.00 0.00 59 1021.1
20260903092657 71 250 5.2 10.4 0.00 0.00 0.00 61 1021.1
20260903092557 71 225 5.2 10.4 0.00 0.00 0.00 62 1021.1
20260903092457 71 259 5.2 10.4 0.00 0.00 0.00 62 1021.1
20260903092353 71 249 5.2 10.4 0.00 0.00 0.00 62 1021.1
20260903092300 71 237 5.2 10.4 0.00 0.00 0.00 61 1021.1
20260903092253 71 238 5.2 10.4 0.00 0.00 0.00 61 1021.1
20260903092153 71 271 5.2 10.4 0.00 0.00 0.00 62 1021.1
20260903092053 70 246 5.2 10.4 0.00 0.00 0.00 62 1021.1
20260903091951 70 244 5.2 10.4 0.00 0.00 0.00 62 1021.1
20260903091845 70 260 5.2 8.7 0.00 0.00 0.00 62 1021.2
20260903091801 70 253 5.2 8.7 0.00 0.00 0.00 63 1021.2
20260903091745 70 284 5.2 8.7 0.00 0.00 0.00 63 1021.2
20260903091646 70 259 5.2 8.7 0.00 0.00 0.00 62 1021.2
20260903091546 70 273 5.2 8.7 0.00 0.00 0.00 61 1021.2
20260903091444 70 257 5.2 8.7 0.00 0.00 0.00 62 1021.3
20260903091346 70 284 5.2 8.7 0.00 0.00 0.00 61 1021.2
20260903091302 70 284 5.2 8.7 0.00 0.00 0.00 61 1021.2
20260903091243 70 274 5.2 10.4 0.00 0.00 0.00 61 1021.2
20260903091143 70 317 5.2 10.4 0.00 0.00 0.00 62 1021.1
20260903091043 70 299 4.3 10.4 0.00 0.00 0.00 63 1021.2
20260903091026 70 273 4.3 10.4 0.00 0.00 0.00 62 1021.2
20260903091021 70 285 4.3 10.4 0.00 0.00 0.00 62 1021.2
20260903091012 70 234 5.2 10.4 0.00 0.00 0.00 63 1021.2
20260903090741 70 281 4.3 10.4 0.00 0.00 0.00 62 1021.2
20260903090642 70 224 4.3 10.4 0.00 0.00 0.00 63 1021.2
20260903090541 69 254 4.3 10.4 0.00 0.00 0.00 63 1021.2
20260903090441 69 273 4.3 10.4 0.00 0.00 0.00 63 1021.2
20260903090342 69 268 3.5 10.4 0.00 0.00 0.00 63 1021.3
20260903090301 69 257 3.5 10.4 0.00 0.00 0.00 63 1021.2
20260903090239 69 221 3.5 7.0 0.00 0.00 0.00 63 1021.2
20260903090139 69 292 3.5 7.0 0.00 0.00 0.00 63 1021.3
20260903090039 69 273 3.5 7.0 0.00 0.00 0.00 63 1021.3
20260903085939 69 211 3.5 7.0 0.00 0.00 0.00 64 1021.5
20260903085839 69 259 3.5 7.0 0.00 0.00 0.00 63 1021.3
20260903085800 69 310 4.3 7.8 0.00 0.00 0.00 63 1021.5
20260903085737 69 263 4.3 8.7 0.00 0.00 0.00 63 1021.5
20260903085637 69 240 4.3 8.7 0.00 0.00 0.00 63 1021.5
20260903085535 69 261 4.3 8.7 0.00 0.00 0.00 64 1021.6
20260903085436 69 253 4.3 8.7 0.00 0.00 0.00 64 1021.5
20260903085334 69 257 4.3 8.7 0.00 0.00 0.00 63 1021.6
20260903085300 69 274 4.3 8.7 0.00 0.00 0.00 63 1021.3
20260903085231 69 317 4.3 8.7 0.00 0.00 0.00 64 1021.3
20260903085131 69 309 4.3 8.7 0.00 0.00 0.00 64 1021.6
20260903085031 69 274 4.3 8.7 0.00 0.00 0.00 63 1021.6
20260903084929 69 293 5.2 11.3 0.00 0.00 0.00 64 1021.6
20260903084829 69 292 5.2 11.3 0.00 0.00 0.00 64 1021.6
20260903084802 69 284 4.3 11.3 0.00 0.00 0.00 64 1021.5
20260903084729 69 277 4.3 11.3 0.00 0.00 0.00 64 1021.6
20260903084629 69 298 4.3 11.3 0.00 0.00 0.00 64 1021.6
20260903084530 69 279 4.3 11.3 0.00 0.00 0.00 64 1021.6
20260903084429 69 227 5.2 11.3 0.00 0.00 0.00 64 1021.6
20260903084301 69 275 5.2 11.3 0.00 0.00 0.00 64 1021.5
20260903084229 69 265 5.2 11.3 0.00 0.00 0.00 64 1021.5
20260903084129 69 234 6.1 11.3 0.00 0.00 0.00 64 1021.5
20260903084030 69 269 6.1 11.3 0.00 0.00 0.00 64 1021.5
20260903084026 68 283 5.2 10.4 0.00 0.00 0.00 64 1021.5
20260903084020 68 275 5.2 10.4 0.00 0.00 0.00 64 1021.5
20260903084012 68 317 5.2 10.4 0.00 0.00 0.00 64 1021.3
20260903083730 68 252 5.2 10.4 0.00 0.00 0.00 64 1021.5
20260903083629 68 319 5.2 10.4 0.00 0.00 0.00 64 1021.5
20260903083529 68 270 5.2 10.4 0.00 0.00 0.00 64 1021.5
20260903083429 68 273 5.2 9.6 0.00 0.00 0.00 64 1021.6
20260903083329 68 250 5.2 9.6 0.00 0.00 0.00 64 1021.5
20260903083301 68 298 5.2 9.6 0.00 0.00 0.00 65 1021.3
20260903083229 68 300 5.2 9.6 0.00 0.00 0.00 65 1021.3
20260903083129 68 279 5.2 8.7 0.00 0.00 0.00 66 1021.5
20260903083029 68 282 5.2 8.7 0.00 0.00 0.00 66 1021.3
20260903082929 68 309 5.2 8.7 0.00 0.00 0.00 66 1021.3
20260903082829 68 273 5.2 8.7 0.00 0.00 0.00 66 1021.3
20260903082801 67 261 5.2 8.7 0.00 0.00 0.00 65 1021.2
20260903082729 67 297 5.2 8.7 0.00 0.00 0.00 65 1021.2
20260903082628 67 288 5.2 8.7 0.00 0.00 0.00 65 1021.2
20260903082529 67 255 5.2 8.7 0.00 0.00 0.00 66 1021.2
20260903082525 67 209 4.3 8.7 0.00 0.00 0.00 65 1021.2
20260903082519 67 240 4.3 8.7 0.00 0.00 0.00 66 1021.2
20260903082511 67 209 4.3 8.7 0.00 0.00 0.00 66 1021.2
20260903082228 67 209 4.3 8.7 0.00 0.00 0.00 65 1021.2
20260903082128 67 265 4.3 9.6 0.00 0.00 0.00 65 1021.3
20260903082029 67 250 5.2 9.6 0.00 0.00 0.00 65 1021.3
20260903081929 67 263 5.2 9.6 0.00 0.00 0.00 67 1021.3
20260903081833 67 268 5.2 9.6 0.00 0.00 0.00 67 1021.2
20260903081801 67 262 5.2 9.6 0.00 0.00 0.00 67 1021.2
20260903081725 67 272 5.2 9.6 0.00 0.00 0.00 66 1021.2
20260903081625 67 285 5.2 9.6 0.00 0.00 0.00 67 1021.2
20260903081525 67 234 5.2 9.6 0.00 0.00 0.00 67 1021.1
20260903081425 67 233 5.2 9.6 0.00 0.00 0.00 67 1021.1
20260903081328 67 227 5.2 9.6 0.00 0.00 0.00 66 1021.1
20260903081301 67 290 5.2 9.6 0.00 0.00 0.00 66 1021.1
20260903081219 67 214 5.2 8.7 0.00 0.00 0.00 67 1021.1
20260903081119 67 282 5.2 8.7 0.00 0.00 0.00 67 1021.1
20260903081019 67 263 5.2 8.7 0.00 0.00 0.00 67 1021.2
20260903080919 67 267 5.2 8.7 0.00 0.00 0.00 68 1021.2
20260903080822 67 222 5.2 8.7 0.00 0.00 0.00 69 1021.2
20260903080801 66 257 5.2 8.7 0.00 0.00 0.00 69 1021.2
20260903080756 66 225 5.2 8.7 0.00 0.00 0.00 69 1021.1
20260903080743 66 300 5.2 8.7 0.00 0.00 0.00 69 1021.2
20260903080739 66 280 5.2 8.7 0.00 0.00 0.00 69 1021.2
20260903080523 66 246 5.2 8.7 0.00 0.00 0.00 69 1021.1
20260903080519 66 278 5.2 8.7 0.00 0.00 0.00 69 1021.1
20260903080515 66 246 5.2 8.7 0.00 0.00 0.00 69 1021.1
20260903080207 66 219 5.2 8.7 0.00 0.00 0.00 69 1021.1
20260903080107 66 282 5.2 8.7 0.00 0.00 0.00 70 1021.2
20260903080007 66 181 5.2 8.7 0.00 0.00 0.00 70 1021.2
20260903075907 66 290 5.2 8.7 0.00 0.00 0.00 70 1021.1
20260903075810 66 279 5.2 8.7 0.00 0.00 0.00 70 1021.1
20260903075800 66 289 5.2 8.7 0.00 0.00 0.00 70 1021.1
20260903075705 66 259 5.2 8.7 0.00 0.00 0.00 71 1021.1
20260903075605 66 242 4.3 8.7 0.00 0.00 0.00 71 1021.0
20260903075505 65 270 4.3 8.7 0.00 0.00 0.00 71 1021.0
20260903075403 65 219 4.3 8.7 0.00 0.00 0.00 71 1021.0
20260903075310 65 288 4.3 8.7 0.00 0.00 0.00 71 1020.9
20260903075307 65 272 4.3 8.7 0.00 0.00 0.00 71 1020.9
20260903075258 65 231 4.3 8.7 0.00 0.00 0.00 72 1021.0
20260903075243 65 263 4.3 8.7 0.00 0.00 0.00 71 1020.9
20260903075240 65 255 4.3 8.7 0.00 0.00 0.00 72 1021.0
20260903075020 65 220 4.3 8.7 0.00 0.00 0.00 72 1021.0
20260903075016 65 219 4.3 8.7 0.00 0.00 0.00 72 1021.0
20260903075012 65 231 4.3 8.7 0.00 0.00 0.00 72 1021.0
20260903074701 65 237 4.3 8.7 0.00 0.00 0.00 73 1020.9
20260903074601 65 218 4.3 8.7 0.00 0.00 0.00 73 1021.0
20260903074501 65 269 4.3 8.7 0.00 0.00 0.00 73 1020.9
20260903074401 65 252 4.3 8.7 0.00 0.00 0.00 74 1020.9
20260903074301 65 275 4.3 8.7 0.00 0.00 0.00 73 1021.0
20260903074201 64 261 4.3 8.7 0.00 0.00 0.00 74 1020.9
20260903074101 64 273 3.5 8.7 0.00 0.00 0.00 74 1021.0
20260903074001 64 250 3.5 8.7 0.00 0.00 0.00 74 1021.0
20260903073901 64 246 2.6 7.0 0.00 0.00 0.00 74 1021.0
20260903073801 64 227 2.6 7.0 0.00 0.00 0.00 75 1021.0
20260903073701 64 211 2.6 7.0 0.00 0.00 0.00 75 1020.9
20260903073601 64 271 2.6 7.0 0.00 0.00 0.00 75 1020.9
20260903073501 64 286 2.6 7.0 0.00 0.00 0.00 76 1020.9
20260903073401 64 213 1.7 7.0 0.00 0.00 0.00 76 1020.9
20260903073301 64 267 2.6 7.0 0.00 0.00 0.00 76 1020.9
20260903073201 64 266 2.6 7.0 0.00 0.00 0.00 76 1021.0
20260903073101 64 238 2.6 7.0 0.00 0.00 0.00 76 1021.0
20260903073000 64 236 2.6 7.0 0.00 0.00 0.00 77 1021.0
20260903072900 63 236 2.6 7.0 0.00 0.00 0.00 77 1021.0
20260903072801 63 234 3.5 7.0 0.00 0.00 0.00 77 1021.1
20260903072700 63 232 3.5 7.0 0.00 0.00 0.00 76 1021.1
20260903072600 63 273 3.5 7.0 0.00 0.00 0.00 76 1021.1
20260903072500 63 273 3.5 7.0 0.00 0.00 0.00 77 1021.2
20260903072400 63 234 3.5 7.0 0.00 0.00 0.00 77 1021.1
20260903072300 63 286 3.5 7.0 0.00 0.00 0.00 77 1021.2
20260903072200 63 277 3.5 7.0 0.00 0.00 0.00 78 1021.2
20260903072101 62 250 3.5 7.0 0.00 0.00 0.00 79 1021.2
20260903072001 62 279 3.5 7.0 0.00 0.00 0.00 78 1021.2
20260903071901 62 263 3.5 7.0 0.00 0.00 0.00 79 1021.2
20260903071801 62 254 3.5 7.0 0.00 0.00 0.00 79 1021.2
20260903071701 62 271 3.5 7.0 0.00 0.00 0.00 80 1021.2
20260903071601 62 227 3.5 7.0 0.00 0.00 0.00 80 1021.2
20260903071501 62 279 3.5 7.0 0.00 0.00 0.00 80 1021.2
20260903071401 61 216 3.5 7.0 0.00 0.00 0.00 80 1021.2
20260903071300 61 270 3.5 7.0 0.00 0.00 0.00 81 1021.2
20260903071201 61 212 3.5 7.0 0.00 0.00 0.00 81 1021.2
20260903071101 61 211 3.5 7.0 0.00 0.00 0.00 82 1021.2
20260903071020 61 221 3.5 7.0 0.00 0.00 0.00 82 1021.2
20260903071016 61 255 2.6 7.0 0.00 0.00 0.00 82 1021.3
20260903071012 60 271 2.6 7.0 0.00 0.00 0.00 83 1021.2
20260903070755 59 318 1.7 5.2 0.00 0.00 0.00 86 1021.5
20260903070740 60 225 2.6 7.0 0.00 0.00 0.00 83 1021.3
20260903070736 60 238 2.6 7.0 0.00 0.00 0.00 83 1021.3
20260903070521 60 227 1.7 7.0 0.00 0.00 0.00 84 1021.3
20260903070517 60 313 1.7 5.2 0.00 0.00 0.00 85 1021.3
20260903070513 59 318 1.7 5.2 0.00 0.00 0.00 86 1021.5
20260903070205 59 323 1.7 3.5 0.00 0.00 0.00 86 1021.3
20260903070001 59 329 1.7 3.5 0.00 0.00 0.00 86 1021.3
20260903065900 59 329 1.7 3.5 0.00 0.00 0.00 87 1021.5
20260903065800 59 329 1.7 3.5 0.00 0.00 0.00 87 1021.5
20260903065700 58 0 1.7 3.5 0.00 0.00 0.00 87 1021.5
20260903065600 58 5 1.7 3.5 0.00 0.00 0.00 87 1021.6
20260903065500 58 5 1.7 3.5 0.00 0.00 0.00 87 1021.6
20260903065401 58 5 1.7 3.5 0.00 0.00 0.00 87 1021.6
20260903065301 58 5 1.7 3.5 0.00 0.00 0.00 88 1021.6
20260903065200 58 5 1.7 3.5 0.00 0.00 0.00 88 1021.6
20260903065101 58 5 0.9 3.5 0.00 0.00 0.00 88 1021.6
20260903065002 58 9 0.9 2.6 0.00 0.00 0.00 88 1021.6
20260903064901 58 11 0.9 2.6 0.00 0.00 0.00 88 1021.6
20260903064800 58 11 0.9 2.6 0.00 0.00 0.00 89 1021.6
20260903064701 58 11 0.9 2.6 0.00 0.00 0.00 89 1021.6
20260903064601 57 11 0.9 2.6 0.00 0.00 0.00 89 1021.6
20260903064521 57 11 0.9 2.6 0.00 0.00 0.00 89 1021.6
20260903064517 57 11 0.0 2.6 0.00 0.00 0.00 89 1021.6
20260903064513 57 11 0.0 2.6 0.00 0.00 0.00 89 1021.6
20260903064201 57 10 0.0 2.6 0.00 0.00 0.00 90 1021.6
20260903064101 57 10 0.0 1.7 0.00 0.00 0.00 90 1021.6
20260903064001 57 10 0.0 0.9 0.00 0.00 0.00 90 1021.6
20260903063901 57 10 0.0 0.9 0.00 0.00 0.00 89 1021.6
20260903063801 57 10 0.0 0.9 0.00 0.00 0.00 90 1021.6
20260903063700 57 10 0.0 0.9 0.00 0.00 0.00 90 1021.6
20260903063602 57 10 0.0 0.9 0.00 0.00 0.00 91 1021.5
20260903063501 57 10 0.0 1.7 0.00 0.00 0.00 91 1021.5
20260903063400 57 10 0.0 1.7 0.00 0.00 0.00 91 1021.5
20260903063300 57 10 0.0 1.7 0.00 0.00 0.00 91 1021.5
20260903063252 56 10 0.0 1.7 0.00 0.00 0.00 91 1021.3
20260903063247 56 10 0.0 1.7 0.00 0.00 0.00 91 1021.3
20260903063239 56 10 0.0 1.7 0.00 0.00 0.00 91 1021.5
20260903063021 56 10 0.0 1.7 0.00 0.00 0.00 91 1021.3
20260903063017 56 10 0.0 1.7 0.00 0.00 0.00 91 1021.3
20260903063011 56 10 0.0 1.7 0.00 0.00 0.00 91 1021.3
20260903062700 56 10 0.0 1.7 0.00 0.00 0.00 91 1021.3
20260903062600 56 10 0.0 1.7 0.00 0.00 0.00 91 1021.5
20260903062521 56 11 0.0 0.9 0.00 0.00 0.00 91 1021.3
20260903062516 56 11 0.0 0.9 0.00 0.00 0.00 91 1021.3
20260903062513 56 11 0.0 0.9 0.00 0.00 0.00 91 1021.3
20260903062201 56 11 0.0 0.9 0.00 0.00 0.00 91 1021.2
20260903062100 56 11 0.0 0.9 0.00 0.00 0.00 91 1021.3
20260903062000 56 11 0.0 0.9 0.00 0.00 0.00 91 1021.2
20260903061902 56 11 0.0 0.9 0.00 0.00 0.00 91 1021.3
20260903061801 56 11 0.0 0.9 0.00 0.00 0.00 91 1021.2
20260903061701 56 11 0.0 0.9 0.00 0.00 0.00 91 1021.2
20260903061601 56 11 0.0 0.9 0.00 0.00 0.00 91 1021.2
20260903061501 56 11 0.0 0.9 0.00 0.00 0.00 91 1021.1
20260903061401 56 11 0.0 0.9 0.00 0.00 0.00 91 1021.1
20260903061301 56 11 0.0 0.9 0.00 0.00 0.00 91 1021.1
20260903061201 56 11 0.0 0.9 0.00 0.00 0.00 91 1021.1
20260903061104 56 11 0.0 0.9 0.00 0.00 0.00 91 1021.1
20260903061001 56 11 0.0 0.9 0.00 0.00 0.00 91 1021.1
20260903060901 56 11 0.0 0.9 0.00 0.00 0.00 91 1021.1
20260903060802 56 11 0.0 0.9 0.00 0.00 0.00 91 1021.1
20260903060701 56 11 0.0 0.9 0.00 0.00 0.00 91 1021.0
20260903060601 56 11 0.0 0.9 0.00 0.00 0.00 91 1021.1
20260903060501 56 11 0.0 0.9 0.00 0.00 0.00 91 1021.0
20260903060401 55 10 0.0 0.9 0.00 0.00 0.00 91 1021.0
20260903060301 55 10 0.0 0.9 0.00 0.00 0.00 91 1021.0
20260903060201 55 11 0.0 0.9 0.00 0.00 0.00 91 1021.0
20260903060100 55 11 0.0 0.9 0.00 0.00 0.00 91 1021.0
20260903060019 55 11 0.0 0.9 0.00 0.00 0.00 91 1021.1
20260903060015 55 11 0.0 0.9 0.00 0.00 0.00 91 1021.0
20260903060011 55 11 0.0 0.9 0.00 0.00 0.00 91 1021.0
20260903055755 55 11 0.9 1.7 0.00 0.00 0.00 91 1021.0
20260903055747 55 11 0.0 0.9 0.00 0.00 0.00 91 1021.0
20260903055743 55 11 0.0 0.9 0.00 0.00 0.00 91 1021.0
20260903055520 55 11 0.0 1.7 0.00 0.00 0.00 91 1021.0
20260903055516 55 11 0.0 1.7 0.00 0.00 0.00 91 1021.0
20260903055512 55 11 0.9 1.7 0.00 0.00 0.00 91 1021.0
20260903055201 55 11 0.9 2.6 0.00 0.00 0.00 91 1021.0
20260903055101 55 11 0.9 2.6 0.00 0.00 0.00 90 1021.0
20260903055021 55 11 0.9 2.6 0.00 0.00 0.00 91 1021.0
20260903055017 55 11 0.9 2.6 0.00 0.00 0.00 90 1021.0
20260903055013 55 11 0.9 2.6 0.00 0.00 0.00 91 1021.0
20260903054700 55 11 0.9 2.6 0.00 0.00 0.00 91 1021.0
20260903054601 55 11 0.0 2.6 0.00 0.00 0.00 91 1021.0
20260903054500 55 11 0.0 2.6 0.00 0.00 0.00 91 1021.0
20260903054400 55 11 0.0 2.6 0.00 0.00 0.00 91 1021.0
20260903054301 55 11 0.0 2.6 0.00 0.00 0.00 91 1021.0
20260903054201 55 9 0.0 0.0 0.00 0.00 0.00 91 1020.9
20260903054101 55 9 0.0 0.0 0.00 0.00 0.00 91 1020.9
20260903054000 55 9 0.0 0.0 0.00 0.00 0.00 91 1021.0
20260903053900 55 9 0.0 0.0 0.00 0.00 0.00 91 1020.9
20260903053801 55 9 0.0 0.0 0.00 0.00 0.00 91 1020.9
20260903053701 55 9 0.0 0.0 0.00 0.00 0.00 91 1020.9
20260903053601 55 9 0.0 0.0 0.00 0.00 0.00 91 1020.9
20260903053520 54 9 0.0 0.0 0.00 0.00 0.00 91 1020.9
20260903053516 54 9 0.0 0.0 0.00 0.00 0.00 91 1020.9
20260903053512 54 9 0.0 0.0 0.00 0.00 0.00 91 1020.9
20260903053200 54 9 0.0 0.9 0.00 0.00 0.00 91 1020.9
20260903053100 54 9 0.0 0.9 0.00 0.00 0.00 91 1020.9
20260903053000 54 9 0.0 0.9 0.00 0.00 0.00 91 1020.9
20260903052900 54 9 0.0 0.9 0.00 0.00 0.00 91 1020.8
20260903052801 54 9 0.0 0.9 0.00 0.00 0.00 91 1020.8
20260903052701 54 9 0.0 0.9 0.00 0.00 0.00 91 1020.8
20260903052601 54 9 0.0 0.9 0.00 0.00 0.00 91 1020.8
20260903052501 54 9 0.0 0.9 0.00 0.00 0.00 91 1020.9
20260903052400 54 9 0.0 0.9 0.00 0.00 0.00 91 1020.8
20260903052301 54 9 0.0 0.9 0.00 0.00 0.00 91 1020.9
20260903052201 54 9 0.0 0.9 0.00 0.00 0.00 91 1020.8
20260903052101 54 9 0.0 0.9 0.00 0.00 0.00 91 1020.9
20260903052005 54 9 0.0 0.9 0.00 0.00 0.00 91 1020.9
20260903051900 54 9 0.0 0.9 0.00 0.00 0.00 91 1020.9
20260903051801 54 9 0.0 0.9 0.00 0.00 0.00 91 1020.8
20260903051701 54 9 0.0 0.9 0.00 0.00 0.00 91 1020.9
20260903051601 54 9 0.0 0.9 0.00 0.00 0.00 91 1020.8
20260903051501 54 9 0.0 0.9 0.00 0.00 0.00 91 1020.9
20260903051401 54 9 0.0 0.9 0.00 0.00 0.00 91 1020.9
20260903051301 54 9 0.0 0.9 0.00 0.00 0.00 91 1020.9
20260903051201 54 9 0.0 0.0 0.00 0.00 0.00 91 1020.8
20260903051101 54 9 0.0 0.0 0.00 0.00 0.00 91 1020.8
20260903051025 54 9 0.0 0.0 0.00 0.00 0.00 91 1020.8
20260903051017 54 9 0.0 0.0 0.00 0.00 0.00 91 1020.8
20260903051013 54 9 0.0 0.0 0.00 0.00 0.00 91 1020.8
20260903050701 54 9 0.0 0.0 0.00 0.00 0.00 91 1020.8
20260903050601 54 9 0.0 0.0 0.00 0.00 0.00 91 1020.8
20260903050501 54 9 0.0 0.0 0.00 0.00 0.00 91 1020.8
20260903050401 54 9 0.0 0.0 0.00 0.00 0.00 91 1020.8
20260903050301 54 9 0.0 0.0 0.00 0.00 0.00 91 1020.8
20260903050201 54 9 0.0 0.0 0.00 0.00 0.00 91 1020.8
20260903050100 54 9 0.0 0.0 0.00 0.00 0.00 91 1020.8
20260903050023 54 9 0.0 0.0 0.00 0.00 0.00 91 1020.8
20260903050015 54 9 0.0 0.0 0.00 0.00 0.00 91 1020.8
20260903050011 54 9 0.0 0.0 0.00 0.00 0.00 91 1020.8
20260903045700 54 9 0.0 0.0 0.00 0.00 0.00 91 1020.9
20260903045600 54 9 0.0 0.0 0.00 0.00 0.00 91 1020.9
20260903045500 54 9 0.0 0.0 0.00 0.00 0.00 91 1020.8
20260903045400 54 9 0.0 0.0 0.00 0.00 0.00 91 1020.9
20260903045301 54 9 0.0 0.0 0.00 0.00 0.00 91 1020.9
20260903045201 54 9 0.0 0.0 0.00 0.00 0.00 90 1020.9
20260903045101 54 9 0.0 0.9 0.00 0.00 0.00 90 1020.9
20260903045001 54 9 0.0 0.9 0.00 0.00 0.00 90 1020.9
20260903044901 54 9 0.0 1.7 0.00 0.00 0.00 90 1020.9
20260903044801 54 9 0.0 1.7 0.00 0.00 0.00 90 1020.9
20260903044702 54 9 0.0 1.7 0.00 0.00 0.00 90 1020.9
20260903044600 54 9 0.0 1.7 0.00 0.00 0.00 90 1020.8
20260903044500 54 9 0.0 1.7 0.00 0.00 0.00 90 1020.8
20260903044401 54 9 0.0 1.7 0.00 0.00 0.00 90 1020.9
20260903044302 54 9 0.0 1.7 0.00 0.00 0.00 90 1020.8
20260903044200 54 9 0.0 1.7 0.00 0.00 0.00 90 1020.7
20260903044101 54 9 0.0 1.7 0.00 0.00 0.00 90 1020.7
20260903044001 54 9 0.0 1.7 0.00 0.00 0.00 90 1020.8
20260903043901 54 9 0.0 1.7 0.00 0.00 0.00 90 1020.7
20260903043801 54 9 0.0 1.7 0.00 0.00 0.00 90 1020.8
20260903043701 54 9 0.0 1.7 0.00 0.00 0.00 90 1020.8
20260903043601 54 9 0.0 1.7 0.00 0.00 0.00 90 1020.8
20260903043500 54 9 0.0 1.7 0.00 0.00 0.00 90 1020.8
20260903043401 54 9 0.0 1.7 0.00 0.00 0.00 90 1020.7
20260903043301 54 9 0.0 1.7 0.00 0.00 0.00 90 1020.7
20260903043200 54 9 0.0 1.7 0.00 0.00 0.00 90 1020.7
20260903043100 54 9 0.0 1.7 0.00 0.00 0.00 90 1020.8
20260903043000 54 9 0.0 1.7 0.00 0.00 0.00 90 1020.7
20260903042905 54 9 0.0 1.7 0.00 0.00 0.00 90 1020.7
20260903042801 54 9 0.0 1.7 0.00 0.00 0.00 90 1020.7
20260903042701 54 9 0.9 1.7 0.00 0.00 0.00 90 1020.7
20260903042600 54 9 0.9 1.7 0.00 0.00 0.00 90 1020.7
20260903042500 54 9 0.9 1.7 0.00 0.00 0.00 90 1020.7
20260903042403 54 9 0.9 1.7 0.00 0.00 0.00 90 1020.7
20260903042301 54 9 0.9 1.7 0.00 0.00 0.00 90 1020.7
20260903042202 54 9 0.9 1.7 0.00 0.00 0.00 90 1020.7
20260903042102 54 9 0.9 1.7 0.00 0.00 0.00 90 1020.7
20260903042000 54 9 0.9 1.7 0.00 0.00 0.00 90 1020.8
20260903041900 54 9 0.9 1.7 0.00 0.00 0.00 90 1020.7
20260903041801 54 9 0.9 1.7 0.00 0.00 0.00 90 1020.7
20260903041701 54 9 0.9 1.7 0.00 0.00 0.00 90 1020.7
20260903041559 54 9 0.9 1.7 0.00 0.00 0.00 90 1020.7
20260903041459 54 5 0.9 1.7 0.00 0.00 0.00 90 1020.7
20260903041359 54 5 0.0 1.7 0.00 0.00 0.00 90 1020.7
20260903041303 54 5 0.0 1.7 0.00 0.00 0.00 90 1020.7
20260903041259 54 5 0.0 1.7 0.00 0.00 0.00 90 1020.7
20260903041158 54 5 0.0 1.7 0.00 0.00 0.00 90 1020.7
20260903041058 54 5 0.0 1.7 0.00 0.00 0.00 90 1020.7
20260903040956 54 5 0.0 1.7 0.00 0.00 0.00 90 1020.7
20260903040857 54 5 0.9 1.7 0.00 0.00 0.00 90 1020.7
20260903040801 54 5 0.9 1.7 0.00 0.00 0.00 90 1020.7
20260903040755 54 5 0.9 1.7 0.00 0.00 0.00 90 1020.7
20260903040653 54 5 0.9 1.7 0.00 0.00 0.00 90 1020.7
20260903040551 54 5 0.9 1.7 0.00 0.00 0.00 90 1020.6
20260903040450 54 5 0.9 1.7 0.00 0.00 0.00 90 1020.7
20260903040354 54 5 0.9 1.7 0.00 0.00 0.00 90 1020.6
20260903040301 54 5 0.9 1.7 0.00 0.00 0.00 90 1020.6
20260903040248 54 5 0.9 1.7 0.00 0.00 0.00 90 1020.6
20260903040149 54 5 0.0 1.7 0.00 0.00 0.00 90 1020.6
20260903040048 54 5 0.0 1.7 0.00 0.00 0.00 90 1020.6
20260903035949 54 5 0.0 1.7 0.00 0.00 0.00 90 1020.6
20260903035851 54 5 0.0 1.7 0.00 0.00 0.00 90 1020.6
20260903035800 54 5 0.0 1.7 0.00 0.00 0.00 90 1020.6
20260903035748 54 5 0.0 1.7 0.00 0.00 0.00 90 1020.6
20260903035648 54 5 0.0 1.7 0.00 0.00 0.00 90 1020.6
20260903035547 54 5 0.9 1.7 0.00 0.00 0.00 90 1020.6
20260903035523 54 5 0.9 1.7 0.00 0.00 0.00 90 1020.5
20260903035520 54 5 0.9 1.7 0.00 0.00 0.00 90 1020.6
20260903035515 54 5 0.9 1.7 0.00 0.00 0.00 90 1020.6
20260903035246 54 5 0.9 1.7 0.00 0.00 0.00 90 1020.5
20260903035146 54 5 0.9 1.7 0.00 0.00 0.00 90 1020.5
20260903035046 54 5 0.9 1.7 0.00 0.00 0.00 90 1020.5
20260903034946 54 5 0.9 1.7 0.00 0.00 0.00 90 1020.5
20260903034847 54 5 0.9 1.7 0.00 0.00 0.00 90 1020.5
20260903034801 54 5 0.9 1.7 0.00 0.00 0.00 90 1020.5
20260903034743 54 5 0.9 1.7 0.00 0.00 0.00 90 1020.5
20260903034643 54 5 0.9 1.7 0.00 0.00 0.00 90 1020.5
20260903034543 54 0 0.9 1.7 0.00 0.00 0.00 90 1020.5
20260903034442 54 0 0.0 1.7 0.00 0.00 0.00 90 1020.5
20260903034344 54 0 0.9 1.7 0.00 0.00 0.00 90 1020.5
20260903034301 54 0 0.9 1.7 0.00 0.00 0.00 90 1020.6
20260903034242 54 0 0.9 1.7 0.00 0.00 0.00 90 1020.6
20260903034142 54 0 0.9 1.7 0.00 0.00 0.00 90 1020.5
20260903034042 54 0 0.9 1.7 0.00 0.00 0.00 90 1020.5
20260903033942 54 0 0.9 1.7 0.00 0.00 0.00 90 1020.5
20260903033843 54 0 0.9 1.7 0.00 0.00 0.00 90 1020.5
20260903033800 54 355 0.9 1.7 0.00 0.00 0.00 90 1020.5
20260903033743 54 355 0.9 1.7 0.00 0.00 0.00 89 1020.5
20260903033643 54 355 0.9 1.7 0.00 0.00 0.00 89 1020.5
20260903033543 54 355 0.9 1.7 0.00 0.00 0.00 89 1020.5
20260903033443 54 355 0.9 1.7 0.00 0.00 0.00 89 1020.5
20260903033342 54 355 0.9 1.7 0.00 0.00 0.00 89 1020.5
20260903033301 54 355 0.0 1.7 0.00 0.00 0.00 89 1020.5
20260903033242 54 355 0.0 1.7 0.00 0.00 0.00 89 1020.5
20260903033142 54 355 0.0 1.7 0.00 0.00 0.00 89 1020.6
20260903033042 54 355 0.0 1.7 0.00 0.00 0.00 89 1020.5
20260903032938 54 355 0.0 1.7 0.00 0.00 0.00 89 1020.6
20260903032839 54 355 0.0 1.7 0.00 0.00 0.00 89 1020.6
20260903032801 54 350 0.0 1.7 0.00 0.00 0.00 89 1020.6
20260903032738 54 350 0.0 1.7 0.00 0.00 0.00 89 1020.6
20260903032639 55 342 0.0 0.9 0.00 0.00 0.00 89 1020.6
20260903032539 55 340 0.0 0.0 0.00 0.00 0.00 89 1020.6
20260903032523 55 336 0.0 0.0 0.00 0.00 0.00 88 1020.7
20260903032519 55 340 0.0 0.0 0.00 0.00 0.00 89 1020.7
20260903032515 55 336 0.0 0.0 0.00 0.00 0.00 89 1020.7
20260903032238 55 336 0.0 0.0 0.00 0.00 0.00 88 1020.7
20260903032138 55 336 0.0 0.0 0.00 0.00 0.00 88 1020.6
20260903032038 55 336 0.0 0.0 0.00 0.00 0.00 88 1020.7
20260903031938 55 336 0.0 0.0 0.00 0.00 0.00 88 1020.7
20260903031839 55 336 0.0 0.0 0.00 0.00 0.00 88 1020.7
20260903031802 55 336 0.0 0.0 0.00 0.00 0.00 88 1020.7
20260903031738 55 336 0.0 0.9 0.00 0.00 0.00 88 1020.7
20260903031638 55 336 0.0 0.9 0.00 0.00 0.00 88 1020.7
20260903031538 55 336 0.0 1.7 0.00 0.00 0.00 88 1020.7
20260903031439 55 336 0.0 1.7 0.00 0.00 0.00 88 1020.7
20260903031339 55 336 0.9 1.7 0.00 0.00 0.00 88 1020.7
20260903031300 55 336 0.9 1.7 0.00 0.00 0.00 88 1020.7
20260903031238 55 336 0.9 1.7 0.00 0.00 0.00 88 1020.7
20260903031139 55 336 0.9 1.7 0.00 0.00 0.00 88 1020.7
20260903031035 55 336 0.9 1.7 0.00 0.00 0.00 88 1020.7
20260903031020 55 336 0.9 1.7 0.00 0.00 0.00 88 1020.7
20260903031016 55 336 0.9 1.7 0.00 0.00 0.00 88 1020.7
20260903030735 55 336 0.9 1.7 0.00 0.00 0.00 88 1020.7
20260903030635 55 336 0.9 1.7 0.00 0.00 0.00 88 1020.7
20260903030535 55 336 0.0 1.7 0.00 0.00 0.00 88 1020.7
20260903030435 55 336 0.0 1.7 0.00 0.00 0.00 88 1020.7
20260903030334 55 336 0.0 1.7 0.00 0.00 0.00 88 1020.7
20260903030301 55 336 0.0 1.7 0.00 0.00 0.00 88 1020.7
20260903030235 55 336 0.0 1.7 0.00 0.00 0.00 88 1020.7
20260903030134 55 336 0.0 0.0 0.00 0.00 0.00 88 1020.7
20260903030034 55 335 0.0 0.0 0.00 0.00 0.00 88 1020.7
20260903030021 55 335 0.0 0.0 0.00 0.00 0.00 88 1020.7
20260903030017 55 335 0.0 0.0 0.00 0.00 0.00 88 1020.7
20260903025734 55 335 0.0 0.0 0.00 0.00 0.00 88 1020.7
20260903025634 55 335 0.0 0.0 0.00 0.00 0.00 88 1020.7
20260903025534 55 335 0.0 0.0 0.00 0.00 0.00 88 1020.7
20260903025434 55 335 0.0 0.0 0.00 0.00 0.00 88 1020.7
20260903025335 55 335 0.0 0.0 0.00 0.00 0.00 88 1020.7
20260903025302 55 335 0.0 0.0 0.00 0.00 0.00 88 1020.7
20260903025234 55 335 0.0 0.0 0.00 0.00 0.00 88 1020.7
20260903025135 55 335 0.0 0.0 0.00 0.00 0.00 88 1020.7
20260903025035 55 335 0.0 0.0 0.00 0.00 0.00 88 1020.6
20260903024935 55 335 0.0 0.0 0.00 0.00 0.00 88 1020.6
20260903024834 55 335 0.0 0.0 0.00 0.00 0.00 88 1020.7
20260903024801 55 335 0.0 0.0 0.00 0.00 0.00 87 1020.6
20260903024735 55 335 0.0 0.0 0.00 0.00 0.00 87 1020.6
20260903024635 55 335 0.0 0.0 0.00 0.00 0.00 87 1020.6
20260903024535 55 335 0.0 0.0 0.00 0.00 0.00 87 1020.6
20260903024430 55 333 0.0 0.0 0.00 0.00 0.00 87 1020.6
20260903024330 55 333 0.0 0.0 0.00 0.00 0.00 87 1020.6
20260903024301 56 333 0.0 0.0 0.00 0.00 0.00 87 1020.7
20260903024231 56 333 0.0 0.0 0.00 0.00 0.00 87 1020.7
20260903024131 56 333 0.0 0.0 0.00 0.00 0.00 87 1020.6
20260903024030 56 333 0.0 0.0 0.00 0.00 0.00 87 1020.7
20260903023930 56 333 0.0 0.0 0.00 0.00 0.00 87 1020.7
20260903023801 56 333 0.0 0.0 0.00 0.00 0.00 87 1020.7
20260903023730 56 333 0.0 0.0 0.00 0.00 0.00 87 1020.7
20260903023630 56 333 0.0 0.0 0.00 0.00 0.00 87 1020.7
20260903023530 56 333 0.0 0.0 0.00 0.00 0.00 87 1020.7
20260903023431 56 333 0.0 0.0 0.00 0.00 0.00 87 1020.7
20260903023304 56 333 0.0 0.0 0.00 0.00 0.00 87 1020.7
20260903023231 56 333 0.0 0.0 0.00 0.00 0.00 87 1020.7
20260903023131 56 333 0.0 0.0 0.00 0.00 0.00 87 1020.7
20260903023030 56 333 0.0 0.0 0.00 0.00 0.00 87 1020.7
20260903022930 56 333 0.0 0.0 0.00 0.00 0.00 87 1020.7
20260903022803 56 333 0.0 0.0 0.00 0.00 0.00 87 1020.7
20260903022730 56 333 0.0 0.0 0.00 0.00 0.00 87 1020.7
20260903022630 56 333 0.0 0.0 0.00 0.00 0.00 87 1020.7
20260903022529 56 333 0.0 0.0 0.00 0.00 0.00 87 1020.7
20260903022430 56 333 0.0 0.0 0.00 0.00 0.00 87 1020.7
20260903022330 56 333 0.0 0.0 0.00 0.00 0.00 87 1020.7
20260903022301 56 333 0.0 0.0 0.00 0.00 0.00 87 1020.8
20260903022229 56 333 0.0 0.0 0.00 0.00 0.00 87 1020.8
20260903022129 56 333 0.0 0.0 0.00 0.00 0.00 87 1020.8
20260903022030 56 333 0.0 0.0 0.00 0.00 0.00 87 1020.8
20260903021930 56 333 0.0 0.0 0.00 0.00 0.00 87 1020.7
20260903021801 56 333 0.0 0.0 0.00 0.00 0.00 87 1020.8
20260903021729 56 333 0.0 0.0 0.00 0.00 0.00 87 1020.8
20260903021629 56 333 0.0 0.0 0.00 0.00 0.00 87 1020.7
20260903021529 56 333 0.0 0.0 0.00 0.00 0.00 87 1020.7
20260903021427 56 333 0.0 0.0 0.00 0.00 0.00 87 1020.7
20260903021322 56 333 0.0 0.0 0.00 0.00 0.00 87 1020.6
20260903021301 56 333 0.0 0.0 0.00 0.00 0.00 87 1020.7
20260903021222 56 333 0.0 0.0 0.00 0.00 0.00 87 1020.7
20260903021122 57 333 0.0 0.0 0.00 0.00 0.00 87 1020.6
20260903021023 57 333 0.0 0.0 0.00 0.00 0.00 87 1020.7
20260903020922 57 333 0.0 0.0 0.00 0.00 0.00 87 1020.6
20260903020801 57 333 0.0 0.0 0.00 0.00 0.00 87 1020.7
20260903020722 57 333 0.0 0.0 0.00 0.00 0.00 87 1020.7
20260903020620 57 333 0.0 0.0 0.00 0.00 0.00 87 1020.7
20260903020518 57 333 0.0 0.0 0.00 0.00 0.00 87 1020.6
20260903020416 57 333 0.0 0.0 0.00 0.00 0.00 87 1020.6
20260903020301 57 333 0.0 0.0 0.00 0.00 0.00 87 1020.6
20260903020215 57 333 0.0 0.0 0.00 0.00 0.00 87 1020.6
20260903020115 57 333 0.0 0.0 0.00 0.00 0.00 87 1020.6
20260903020013 57 333 0.0 0.0 0.00 0.00 0.00 87 1020.7
20260903015909 57 333 0.0 0.0 0.00 0.00 0.00 87 1020.6
20260903015800 57 333 0.0 0.0 0.00 0.00 0.00 87 1020.7
20260903015704 57 333 0.0 0.0 0.00 0.00 0.00 87 1020.6
20260903015601 57 333 0.0 0.0 0.00 0.00 0.00 87 1020.6
20260903015501 57 333 0.0 0.0 0.00 0.00 0.00 87 1020.6
20260903015401 57 333 0.0 0.0 0.00 0.00 0.00 87 1020.6
20260903015301 57 333 0.0 0.0 0.00 0.00 0.00 87 1020.6
20260903015201 57 333 0.0 0.0 0.00 0.00 0.00 87 1020.6
20260903015101 57 333 0.0 0.0 0.00 0.00 0.00 87 1020.6
20260903015001 57 333 0.0 0.0 0.00 0.00 0.00 87 1020.6
20260903014901 57 333 0.0 0.0 0.00 0.00 0.00 87 1020.6
20260903014802 57 333 0.0 0.0 0.00 0.00 0.00 87 1020.6
20260903014701 57 333 0.0 0.0 0.00 0.00 0.00 87 1020.6
20260903014601 57 333 0.0 0.0 0.00 0.00 0.00 87 1020.6
20260903014521 57 333 0.0 0.0 0.00 0.00 0.00 87 1020.6
20260903014517 57 333 0.0 0.0 0.00 0.00 0.00 87 1020.6
20260903014513 57 333 0.0 0.0 0.00 0.00 0.00 87 1020.6
20260903014201 57 329 0.0 0.0 0.00 0.00 0.00 87 1020.6
20260903014101 57 329 0.0 0.0 0.00 0.00 0.00 87 1020.6
20260903014020 57 329 0.0 0.0 0.00 0.00 0.00 87 1020.6
20260903014016 57 329 0.0 0.0 0.00 0.00 0.00 87 1020.6
20260903014012 57 329 0.0 0.0 0.00 0.00 0.00 87 1020.7
20260903013700 57 329 0.0 0.0 0.00 0.00 0.00 87 1020.7
20260903013601 57 326 0.0 0.0 0.00 0.00 0.00 87 1020.7
20260903013501 57 326 0.0 0.0 0.00 0.00 0.00 87 1020.7
20260903013401 57 326 0.0 0.0 0.00 0.00 0.00 87 1020.7
20260903013301 57 326 0.0 0.0 0.00 0.00 0.00 87 1020.7
20260903013201 57 326 0.0 0.0 0.00 0.00 0.00 87 1020.7
20260903013101 57 326 0.0 0.0 0.00 0.00 0.00 87 1020.7
20260903013001 57 326 0.0 0.0 0.00 0.00 0.00 87 1020.7
20260903012901 57 326 0.0 0.0 0.00 0.00 0.00 86 1020.7
20260903012800 57 326 0.0 0.0 0.00 0.00 0.00 86 1020.7
20260903012700 57 326 0.0 0.0 0.00 0.00 0.00 86 1020.7
20260903012601 57 326 0.0 0.0 0.00 0.00 0.00 86 1020.7
20260903012501 57 326 0.0 0.0 0.00 0.00 0.00 86 1020.7
20260903012401 57 326 0.0 0.0 0.00 0.00 0.00 86 1020.7
20260903012301 57 326 0.0 0.0 0.00 0.00 0.00 86 1020.6
20260903012201 57 326 0.0 0.0 0.00 0.00 0.00 86 1020.6
20260903012100 57 326 0.0 0.0 0.00 0.00 0.00 86 1020.6
20260903012001 57 326 0.0 0.0 0.00 0.00 0.00 86 1020.6
20260903011901 57 326 0.0 0.0 0.00 0.00 0.00 86 1020.6
20260903011801 57 326 0.0 0.0 0.00 0.00 0.00 86 1020.6
20260903011706 57 326 0.0 0.0 0.00 0.00 0.00 86 1020.6
20260903011601 57 326 0.0 0.0 0.00 0.00 0.00 86 1020.6
20260903011501 57 326 0.0 0.0 0.00 0.00 0.00 86 1020.6
20260903011401 57 326 0.0 0.0 0.00 0.00 0.00 86 1020.6
20260903011301 57 326 0.0 0.0 0.00 0.00 0.00 86 1020.5
20260903011205 57 326 0.0 0.0 0.00 0.00 0.00 86 1020.5
20260903011101 57 326 0.0 0.0 0.00 0.00 0.00 86 1020.5
20260903011000 57 326 0.0 0.0 0.00 0.00 0.00 86 1020.5
20260903010900 57 326 0.0 0.0 0.00 0.00 0.00 86 1020.5
20260903010800 57 326 0.0 0.0 0.00 0.00 0.00 86 1020.5
20260903010702 57 326 0.0 0.0 0.00 0.00 0.00 86 1020.5
20260903010600 57 326 0.0 0.0 0.00 0.00 0.00 86 1020.5
20260903010500 57 326 0.0 0.0 0.00 0.00 0.00 86 1020.5
20260903010401 57 326 0.0 0.0 0.00 0.00 0.00 86 1020.5
20260903010301 57 326 0.0 0.0 0.00 0.00 0.00 86 1020.5
20260903010200 57 326 0.0 0.0 0.00 0.00 0.00 86 1020.5
20260903010101 57 326 0.0 0.0 0.00 0.00 0.00 86 1020.5
20260903010000 57 325 0.0 0.0 0.00 0.00 0.00 86 1020.5
20260903005900 57 326 0.0 0.0 0.00 0.00 0.00 86 1020.5
20260903005800 57 326 0.0 0.0 0.00 0.00 0.00 86 1020.5
20260903005701 57 325 0.0 0.0 0.00 0.00 0.00 86 1020.5
20260903005601 57 326 0.0 0.0 0.00 0.00 0.00 86 1020.5
20260903005521 57 326 0.0 0.0 0.00 0.00 0.00 86 1020.5
20260903005516 57 326 0.0 0.0 0.00 0.00 0.00 86 1020.6
20260903005512 57 325 0.0 0.0 0.00 0.00 0.00 86 1020.5
20260903005201 57 325 0.0 0.0 0.00 0.00 0.00 86 1020.6
20260903005101 57 325 0.0 0.0 0.00 0.00 0.00 86 1020.6
20260903005019 57 325 0.0 0.0 0.00 0.00 0.00 86 1020.6
20260903005015 57 326 0.0 0.0 0.00 0.00 0.00 85 1020.5
20260903005011 57 325 0.0 0.0 0.00 0.00 0.00 86 1020.5
20260903004701 57 325 0.0 0.0 0.00 0.00 0.00 86 1020.6
20260903004601 57 325 0.0 0.0 0.00 0.00 0.00 85 1020.5
20260903004501 57 325 0.0 0.0 0.00 0.00 0.00 85 1020.6
20260903004400 57 325 0.0 0.0 0.00 0.00 0.00 85 1020.6
20260903004301 57 325 0.0 0.0 0.00 0.00 0.00 85 1020.6
20260903004201 57 325 0.0 0.0 0.00 0.00 0.00 85 1020.6
20260903004101 57 325 0.0 0.0 0.00 0.00 0.00 85 1020.6
20260903004019 57 325 0.0 0.0 0.00 0.00 0.00 85 1020.6
20260903004015 57 325 0.0 0.0 0.00 0.00 0.00 85 1020.6
20260903004011 57 325 0.0 0.0 0.00 0.00 0.00 85 1020.5
20260903003701 57 325 0.0 0.0 0.00 0.00 0.00 85 1020.5
20260903003601 57 325 0.0 0.0 0.00 0.00 0.00 86 1020.5
20260903003501 57 325 0.0 0.0 0.00 0.00 0.00 86 1020.5
20260903003401 57 325 0.0 0.0 0.00 0.00 0.00 85 1020.5
20260903003301 57 325 0.0 0.0 0.00 0.00 0.00 85 1020.5
20260903003200 57 325 0.0 0.0 0.00 0.00 0.00 86 1020.5
20260903003101 58 325 0.0 0.0 0.00 0.00 0.00 86 1020.5
20260903003001 57 325 0.0 0.0 0.00 0.00 0.00 86 1020.6
20260903002900 58 325 0.0 0.0 0.00 0.00 0.00 85 1020.5
20260903002801 58 325 0.0 0.0 0.00 0.00 0.00 86 1020.6
20260903002701 58 325 0.0 0.0 0.00 0.00 0.00 86 1020.6
20260903002601 58 325 0.0 0.0 0.00 0.00 0.00 85 1020.6
20260903002501 58 326 0.0 0.0 0.00 0.00 0.00 85 1020.6
20260903002401 58 326 0.0 0.0 0.00 0.00 0.00 85 1020.6
20260903002301 58 326 0.0 0.0 0.00 0.00 0.00 85 1020.6
20260903002201 58 325 0.0 0.0 0.00 0.00 0.00 85 1020.5
20260903002101 58 325 0.0 0.0 0.00 0.00 0.00 85 1020.6
20260903002001 58 325 0.0 0.0 0.00 0.00 0.00 85 1020.6
20260903001901 58 326 0.0 0.0 0.00 0.00 0.00 85 1020.6
20260903001801 58 326 0.0 0.0 0.00 0.00 0.00 85 1020.6
20260903001701 58 326 0.0 0.0 0.00 0.00 0.00 85 1020.6
20260903001601 58 326 0.0 0.0 0.00 0.00 0.00 85 1020.6
20260903001500 58 326 0.0 0.0 0.00 0.00 0.00 85 1020.6
20260903001400 58 326 0.0 0.0 0.00 0.00 0.00 85 1020.6
20260903001301 58 326 0.0 0.0 0.00 0.00 0.00 84 1020.6
20260903001201 58 326 0.0 0.0 0.00 0.00 0.00 84 1020.6
20260903001101 58 326 0.0 0.0 0.00 0.00 0.00 84 1020.6
20260903001019 58 326 0.0 0.0 0.00 0.00 0.00 84 1020.6
20260903001015 58 326 0.0 0.0 0.00 0.00 0.00 84 1020.6
20260903001011 58 326 0.0 0.0 0.00 0.00 0.00 85 1020.7
20260903000700 58 326 0.0 0.0 0.00 0.00 0.00 85 1020.6
20260903000601 58 326 0.0 0.0 0.00 0.00 0.00 84 1020.6
20260903000500 58 326 0.0 0.0 0.00 0.00 0.00 84 1020.6
20260903000402 58 326 0.0 0.0 0.00 0.00 0.00 84 1020.6
20260903000303 58 326 0.0 0.0 0.00 0.00 0.00 84 1020.6
20260903000200 58 326 0.0 0.0 0.00 0.00 0.00 84 1020.6
20260903000100 58 326 0.0 0.0 0.00 0.00 0.00 84 1020.7
20260903000000 58 326 0.0 0.0 0.00 0.00 0.00 84 1020.6
20260902235901 58 326 0.0 0.0 0.00 0.00 0.00 84 1020.6
20260902235801 58 326 0.0 0.0 0.00 0.00 0.00 84 1020.6
20260902235701 58 326 0.0 0.0 0.00 0.00 0.00 84 1020.6
20260902235601 58 326 0.0 0.0 0.00 0.00 0.00 84 1020.6
20260902235520 58 326 0.0 0.0 0.00 0.00 0.00 84 1020.6
20260902235516 58 326 0.0 0.0 0.00 0.00 0.00 84 1020.6
20260902235512 58 326 0.0 0.0 0.00 0.00 0.00 84 1020.5
20260902235201 58 326 0.0 0.0 0.00 0.00 0.00 84 1020.6
20260902235101 58 326 0.0 0.0 0.00 0.00 0.00 84 1020.6
20260902235001 58 326 0.0 0.0 0.00 0.00 0.00 84 1020.6
20260902234901 58 326 0.0 0.0 0.00 0.00 0.00 84 1020.6
20260902234802 58 326 0.0 0.0 0.00 0.00 0.00 84 1020.6
20260902234701 58 326 0.0 0.0 0.00 0.00 0.00 84 1020.6
20260902234601 58 326 0.0 0.0 0.00 0.00 0.00 84 1020.5
20260902234500 58 326 0.0 0.0 0.00 0.00 0.00 84 1020.6
20260902234401 58 326 0.0 0.0 0.00 0.00 0.00 84 1020.5
20260902234301 58 326 0.0 0.0 0.00 0.00 0.00 84 1020.5
20260902234201 58 326 0.0 0.0 0.00 0.00 0.00 84 1020.5
20260902234101 58 326 0.0 0.0 0.00 0.00 0.00 84 1020.5
20260902234021 58 326 0.0 0.0 0.00 0.00 0.00 84 1020.5
20260902234017 58 326 0.0 0.0 0.00 0.00 0.00 84 1020.6
20260902234013 58 326 0.0 0.0 0.00 0.00 0.00 84 1020.6
20260902233701 58 326 0.0 0.0 0.00 0.00 0.00 84 1020.5
20260902233600 58 325 0.0 0.0 0.00 0.00 0.00 84 1020.5
20260902233501 58 325 0.0 0.0 0.00 0.00 0.00 84 1020.5
20260902233401 58 325 0.0 0.0 0.00 0.00 0.00 84 1020.6
20260902233301 58 325 0.0 0.0 0.00 0.00 0.00 84 1020.5
20260902233201 58 325 0.0 0.0 0.00 0.00 0.00 84 1020.6
20260902233101 58 325 0.0 0.0 0.00 0.00 0.00 84 1020.5
20260902233021 58 325 0.0 0.0 0.00 0.00 0.00 84 1020.6
20260902233017 58 325 0.0 0.0 0.00 0.00 0.00 84 1020.6
20260902233013 58 325 0.0 0.0 0.00 0.00 0.00 84 1020.6
20260902232701 58 325 0.0 0.0 0.00 0.00 0.00 84 1020.6
20260902232601 58 325 0.0 0.0 0.00 0.00 0.00 84 1020.6
20260902232501 58 323 0.0 0.0 0.00 0.00 0.00 84 1020.6
20260902232401 58 323 0.0 0.0 0.00 0.00 0.00 83 1020.6
20260902232301 58 323 0.0 0.0 0.00 0.00 0.00 83 1020.7
20260902232201 58 322 0.0 0.0 0.00 0.00 0.00 83 1020.6
20260902232101 58 323 0.0 0.0 0.00 0.00 0.00 83 1020.6
20260902232021 58 323 0.0 0.0 0.00 0.00 0.00 83 1020.6
20260902232017 58 322 0.0 0.0 0.00 0.00 0.00 83 1020.6
20260902232013 58 323 0.0 0.0 0.00 0.00 0.00 83 1020.6
20260902231701 58 323 0.0 0.0 0.00 0.00 0.00 83 1020.6
20260902231601 58 323 0.0 0.0 0.00 0.00 0.00 83 1020.6
20260902231501 58 323 0.0 0.0 0.00 0.00 0.00 83 1020.6
20260902231401 58 323 0.0 0.0 0.00 0.00 0.00 83 1020.7
20260902231301 58 322 0.0 0.0 0.00 0.00 0.00 83 1020.6
20260902231201 58 323 0.0 0.0 0.00 0.00 0.00 83 1020.7
20260902231101 58 323 0.0 0.0 0.00 0.00 0.00 83 1020.6
20260902231001 59 322 0.0 0.0 0.00 0.00 0.00 83 1020.6
20260902230901 58 323 0.0 0.0 0.00 0.00 0.00 83 1020.6
20260902230801 58 323 0.0 0.0 0.00 0.00 0.00 84 1020.6
20260902230701 58 322 0.0 0.0 0.00 0.00 0.00 84 1020.6
20260902230601 59 322 0.0 0.0 0.00 0.00 0.00 84 1020.6
20260902230501 58 322 0.0 0.0 0.00 0.00 0.00 84 1020.6
20260902230401 59 322 0.0 0.0 0.00 0.00 0.00 84 1020.6
20260902230300 59 322 0.0 0.0 0.00 0.00 0.00 83 1020.6
20260902230200 59 322 0.0 0.0 0.00 0.00 0.00 83 1020.6
20260902230100 59 322 0.0 0.0 0.00 0.00 0.00 83 1020.6
20260902225958 58 322 0.0 0.0 0.00 0.00 0.00 83 1020.6
20260902225856 59 322 0.0 0.0 0.00 0.00 0.00 83 1020.6
20260902225801 59 322 0.0 0.0 0.00 0.00 0.00 83 1020.6
20260902225756 59 322 0.0 0.0 0.00 0.00 0.00 83 1020.6
20260902225654 59 322 0.0 0.0 0.00 0.00 0.00 83 1020.6
20260902225554 59 322 0.0 0.0 0.00 0.00 0.00 83 1020.5
20260902225452 59 322 0.0 0.0 0.00 0.00 0.00 83 1020.5
20260902225352 59 322 0.0 0.0 0.00 0.00 0.00 83 1020.6
20260902225302 59 322 0.0 0.0 0.00 0.00 0.00 83 1020.6
20260902225251 59 322 0.0 0.0 0.00 0.00 0.00 83 1020.6
20260902225151 59 322 0.0 0.0 0.00 0.00 0.00 83 1020.6
20260902225052 59 322 0.0 0.0 0.00 0.00 0.00 83 1020.6
20260902224949 59 322 0.0 0.0 0.00 0.00 0.00 83 1020.6
20260902224850 59 322 0.0 0.0 0.00 0.00 0.00 83 1020.6
20260902224801 59 322 0.0 0.0 0.00 0.00 0.00 83 1020.6
20260902224748 59 322 0.0 0.0 0.00 0.00 0.00 83 1020.6
20260902224646 59 322 0.0 0.0 0.00 0.00 0.00 83 1020.6
20260902224546 59 322 0.0 0.0 0.00 0.00 0.00 83 1020.6
20260902224444 59 322 0.0 0.0 0.00 0.00 0.00 83 1020.6
20260902224344 59 322 0.0 0.0 0.00 0.00 0.00 82 1020.6
20260902224301 59 322 0.0 0.0 0.00 0.00 0.00 82 1020.6
20260902224242 59 322 0.0 0.0 0.00 0.00 0.00 82 1020.6
20260902224142 59 322 0.0 0.0 0.00 0.00 0.00 82 1020.6
20260902224042 59 322 0.0 0.0 0.00 0.00 0.00 82 1020.6
20260902223942 59 322 0.0 0.0 0.00 0.00 0.00 82 1020.6
20260902223842 59 322 0.0 0.0 0.00 0.00 0.00 82 1020.7
20260902223800 59 322 0.0 0.0 0.00 0.00 0.00 82 1020.7
20260902223740 59 322 0.0 0.0 0.00 0.00 0.00 82 1020.7
20260902223638 59 322 0.0 0.0 0.00 0.00 0.00 82 1020.6
20260902223538 59 322 0.0 0.0 0.00 0.00 0.00 82 1020.6
20260902223435 59 322 0.0 0.0 0.00 0.00 0.00 82 1020.7
20260902223336 59 322 0.0 0.0 0.00 0.00 0.00 82 1020.7
20260902223301 59 322 0.0 0.0 0.00 0.00 0.00 82 1020.7
20260902223234 59 322 0.0 0.0 0.00 0.00 0.00 82 1020.7
20260902223132 59 322 0.0 0.0 0.00 0.00 0.00 82 1020.6
20260902223029 59 322 0.0 0.0 0.00 0.00 0.00 82 1020.7
20260902222929 59 322 0.0 0.0 0.00 0.00 0.00 82 1020.7
20260902222801 59 322 0.0 0.0 0.00 0.00 0.00 82 1020.7
20260902222729 59 322 0.0 0.0 0.00 0.00 0.00 81 1020.7
20260902222630 59 322 0.0 0.0 0.00 0.00 0.00 81 1020.6
20260902222529 59 322 0.0 0.0 0.00 0.00 0.00 81 1020.6
20260902222429 59 322 0.0 0.0 0.00 0.00 0.00 81 1020.7
20260902222329 59 322 0.0 0.0 0.00 0.00 0.00 81 1020.7
20260902222301 60 322 0.0 0.0 0.00 0.00 0.00 81 1020.7
20260902222229 60 322 0.0 0.0 0.00 0.00 0.00 81 1020.7
20260902222128 60 322 0.0 0.0 0.00 0.00 0.00 81 1020.6
20260902222029 60 322 0.0 0.0 0.00 0.00 0.00 81 1020.7
20260902221929 60 322 0.0 0.0 0.00 0.00 0.00 81 1020.7
20260902221829 60 322 0.0 0.0 0.00 0.00 0.00 81 1020.7
20260902221802 60 322 0.0 0.0 0.00 0.00 0.00 80 1020.7
20260902221729 60 322 0.0 0.0 0.00 0.00 0.00 80 1020.7
20260902221629 60 322 0.0 0.0 0.00 0.00 0.00 80 1020.7
20260902221529 60 322 0.0 0.0 0.00 0.00 0.00 80 1020.7
20260902221429 60 322 0.0 0.0 0.00 0.00 0.00 80 1020.7
20260902221329 60 322 0.0 0.0 0.00 0.00 0.00 80 1020.7
20260902221229 60 322 0.0 0.0 0.00 0.00 0.00 80 1020.6
20260902221129 60 322 0.0 0.0 0.00 0.00 0.00 80 1020.6
20260902221029 60 322 0.0 0.0 0.00 0.00 0.00 80 1020.6
20260902220929 60 322 0.0 0.0 0.00 0.00 0.00 80 1020.6
20260902220828 60 322 0.0 0.0 0.00 0.00 0.00 80 1020.6
20260902220728 60 322 0.0 0.0 0.00 0.00 0.00 80 1020.6
20260902220628 60 322 0.0 0.0 0.00 0.00 0.00 80 1020.6
20260902220528 60 322 0.0 0.0 0.00 0.00 0.00 80 1020.6
20260902220428 60 322 0.0 0.0 0.00 0.00 0.00 80 1020.6
20260902220328 60 322 0.0 0.0 0.00 0.00 0.00 80 1020.6
20260902220229 60 322 0.0 0.0 0.00 0.00 0.00 80 1020.6
20260902220129 60 322 0.0 0.0 0.00 0.00 0.00 80 1020.6
20260902220029 60 322 0.0 0.0 0.00 0.00 0.00 80 1020.6
20260902215929 60 322 0.0 0.0 0.00 0.00 0.00 80 1020.6
20260902215829 60 322 0.0 0.0 0.00 0.00 0.00 80 1020.6
20260902215729 60 322 0.0 0.0 0.00 0.00 0.00 80 1020.6
20260902215629 60 322 0.0 0.0 0.00 0.00 0.00 80 1020.6
20260902215529 60 322 0.0 0.0 0.00 0.00 0.00 80 1020.6
20260902215510 60 322 0.0 0.0 0.00 0.00 0.00 80 1020.5
20260902215505 60 322 0.0 0.0 0.00 0.00 0.00 80 1020.6
20260902215501 60 322 0.0 0.0 0.00 0.00 0.00 80 1020.6
20260902215229 60 322 0.0 0.0 0.00 0.00 0.00 80 1020.6
20260902215129 60 322 0.0 0.0 0.00 0.00 0.00 80 1020.6
20260902215028 61 322 0.0 0.0 0.00 0.00 0.00 80 1020.5
20260902214929 61 322 0.0 0.0 0.00 0.00 0.00 80 1020.5
20260902214829 61 322 0.0 0.0 0.00 0.00 0.00 80 1020.5
20260902214749 61 322 0.0 0.0 0.00 0.00 0.00 80 1020.6
20260902214729 61 322 0.0 0.0 0.00 0.00 0.00 79 1020.6
20260902214629 61 322 0.0 0.0 0.00 0.00 0.00 79 1020.5
20260902214529 61 322 0.0 0.0 0.00 0.00 0.00 79 1020.5
20260902214429 61 322 0.0 0.0 0.00 0.00 0.00 79 1020.5
20260902214329 61 322 0.0 0.0 0.00 0.00 0.00 79 1020.5
20260902214229 61 322 0.0 0.0 0.00 0.00 0.00 78 1020.5
20260902214128 61 322 0.0 0.0 0.00 0.00 0.00 79 1020.5
20260902214030 61 322 0.0 0.0 0.00 0.00 0.00 79 1020.5
20260902213929 61 322 0.0 0.0 0.00 0.00 0.00 79 1020.4
20260902213828 61 322 0.0 0.0 0.00 0.00 0.00 79 1020.4
20260902213728 61 322 0.0 0.0 0.00 0.00 0.00 79 1020.4
20260902213628 61 322 0.0 0.0 0.00 0.00 0.00 78 1020.4
20260902213532 61 322 0.0 0.0 0.00 0.00 0.00 78 1020.4
20260902213427 61 322 0.0 0.0 0.00 0.00 0.00 78 1020.4
20260902213327 61 322 0.0 0.0 0.00 0.00 0.00 78 1020.4
20260902213227 61 322 0.0 0.0 0.00 0.00 0.00 78 1020.4
20260902213126 61 322 0.0 0.0 0.00 0.00 0.00 78 1020.4
20260902213031 61 322 0.0 0.0 0.00 0.00 0.00 78 1020.3
20260902212921 62 322 0.0 0.0 0.00 0.00 0.00 78 1020.3
20260902212821 62 322 0.0 0.0 0.00 0.00 0.00 77 1020.3
20260902212741 62 322 0.0 0.0 0.00 0.00 0.00 77 1020.3
20260902212721 62 322 0.0 0.0 0.00 0.00 0.00 77 1020.4
20260902212621 62 322 0.0 0.0 0.00 0.00 0.00 77 1020.3
20260902212525 62 322 0.0 0.0 0.00 0.00 0.00 77 1020.4
20260902212417 62 322 0.0 0.0 0.00 0.00 0.00 77 1020.3
20260902212317 62 322 0.0 0.0 0.00 0.00 0.00 77 1020.3
20260902212216 62 322 0.0 0.0 0.00 0.00 0.00 77 1020.3
20260902212114 62 322 0.0 0.0 0.00 0.00 0.00 77 1020.3
20260902212016 62 322 0.0 0.0 0.00 0.00 0.00 76 1020.3
20260902211914 62 322 0.0 0.0 0.00 0.00 0.00 77 1020.3
20260902211814 62 322 0.0 0.0 0.00 0.00 0.00 76 1020.3
20260902211715 62 322 0.0 0.0 0.00 0.00 0.00 76 1020.3
20260902211615 62 322 0.0 0.0 0.00 0.00 0.00 76 1020.2
20260902211515 62 322 0.0 0.0 0.00 0.00 0.00 76 1020.3
20260902211415 62 322 0.0 0.0 0.00 0.00 0.00 76 1020.3
20260902211315 62 322 0.0 0.0 0.00 0.00 0.00 76 1020.2
20260902211215 62 322 0.0 0.0 0.00 0.00 0.00 76 1020.2
20260902211211 63 322 0.0 0.0 0.00 0.00 0.00 75 1020.2
20260902211207 63 322 0.0 0.0 0.00 0.00 0.00 76 1020.2
20260902211202 62 322 0.0 0.0 0.00 0.00 0.00 76 1020.3
20260902211158 63 322 0.0 0.0 0.00 0.00 0.00 76 1020.2
20260902211150 63 322 0.0 0.0 0.00 0.00 0.00 76 1020.2
20260902211146 63 322 0.0 0.0 0.00 0.00 0.00 76 1020.2
20260902210709 63 322 0.0 0.0 0.00 0.00 0.00 76 1020.2
20260902210607 63 322 0.0 0.0 0.00 0.00 0.00 75 1020.2
20260902210551 63 322 0.0 0.0 0.00 0.00 0.00 75 1020.2
20260902210450 63 322 0.0 0.0 0.00 0.00 0.00 75 1020.2
20260902210446 63 322 0.0 0.0 0.00 0.00 0.00 75 1020.2
20260902210202 63 322 0.0 0.0 0.00 0.00 0.00 75 1020.2
20260902210100 63 322 0.0 0.0 0.00 0.00 0.00 74 1020.2
20260902210001 63 322 0.0 0.0 0.00 0.00 0.00 74 1020.1
20260902205902 63 322 0.0 0.0 0.00 0.00 0.00 74 1020.1
20260902205802 64 322 0.0 0.0 0.00 0.00 0.00 74 1020.1
20260902205733 64 322 0.0 0.0 0.00 0.00 0.00 74 1020.1
20260902205700 64 322 0.0 0.0 0.00 0.00 0.00 74 1020.1
20260902205601 64 322 0.0 0.0 0.00 0.00 0.00 74 1020.1
20260902205501 64 322 0.0 0.0 0.00 0.00 0.00 74 1020.1
20260902205401 64 322 0.0 0.0 0.00 0.00 0.00 73 1020.1
20260902205233 64 322 0.0 0.0 0.00 0.00 0.00 73 1020.1
20260902205158 64 322 0.0 0.0 0.00 0.00 0.00 73 1020.1
20260902205057 64 322 0.0 0.0 0.00 0.00 0.00 73 1020.1
20260902204956 64 322 0.0 0.0 0.00 0.00 0.00 73 1020.0
20260902204854 64 322 0.0 0.0 0.00 0.00 0.00 73 1020.0
20260902204753 64 322 0.0 0.0 0.00 0.00 0.00 73 1020.0
20260902204733 64 322 0.0 0.0 0.00 0.00 0.00 72 1020.0
20260902204649 64 322 0.0 0.0 0.00 0.00 0.00 72 1020.0
20260902204548 64 322 0.0 0.0 0.00 0.00 0.00 72 1020.0
20260902204449 64 322 0.0 0.0 0.00 0.00 0.00 71 1020.1
20260902204348 64 322 0.0 0.0 0.00 0.00 0.00 71 1020.0
20260902204233 64 322 0.0 0.0 0.00 0.00 0.00 71 1020.0
20260902204144 64 322 0.0 0.0 0.00 0.00 0.00 71 1020.0
20260902204042 64 322 0.0 0.0 0.00 0.00 0.00 70 1020.0
20260902203947 65 322 0.0 0.0 0.00 0.00 0.00 71 1019.9
20260902203943 64 322 0.0 0.0 0.00 0.00 0.00 70 1020.0
20260902203937 65 322 0.0 0.0 0.00 0.00 0.00 70 1020.0
20260902203929 65 322 0.0 0.0 0.00 0.00 0.00 70 1020.0
20260902203711 65 322 0.0 0.0 0.00 0.00 0.00 70 1020.0
20260902203707 65 322 0.0 0.0 0.00 0.00 0.00 70 1020.0
20260902203448 65 322 0.0 0.0 0.00 0.00 0.00 70 1019.9
20260902203444 65 322 0.0 0.0 0.00 0.00 0.00 71 1020.0
20260902203440 65 322 0.0 0.0 0.00 0.00 0.00 71 1019.9
20260902203128 65 322 0.0 0.0 0.00 0.00 0.00 70 1019.9
20260902203029 65 322 0.0 0.0 0.00 0.00 0.00 70 1019.9
20260902202928 65 322 0.0 0.0 0.00 0.00 0.00 69 1020.0
20260902202829 65 322 0.0 0.0 0.00 0.00 0.00 68 1020.0
20260902202729 65 322 0.0 0.0 0.00 0.00 0.00 68 1020.0
20260902202629 65 322 0.0 0.0 0.00 0.00 0.00 68 1019.9
20260902202529 65 322 0.0 0.0 0.00 0.00 0.00 68 1019.9
20260902202429 65 322 0.0 0.0 0.00 0.00 0.00 68 1019.9
20260902202328 65 322 0.0 0.0 0.00 0.00 0.00 68 1019.9
20260902202229 65 322 0.0 0.0 0.00 0.00 0.00 68 1019.9
20260902202129 65 322 0.0 0.0 0.00 0.00 0.00 68 1019.9
20260902202029 65 322 0.0 0.0 0.00 0.00 0.00 68 1019.9
20260902201927 65 322 0.0 0.0 0.00 0.00 0.00 68 1019.9
20260902201827 65 322 0.0 0.0 0.00 0.00 0.00 68 1020.0
20260902201727 65 322 0.0 0.0 0.00 0.00 0.00 68 1019.9
20260902201627 65 322 0.0 0.0 0.00 0.00 0.00 68 1019.9
20260902201526 65 322 0.0 0.9 0.00 0.00 0.00 68 1020.0
20260902201454 65 322 0.0 0.9 0.00 0.00 0.00 68 1020.0
20260902201446 65 322 0.0 0.9 0.00 0.00 0.00 68 1019.9
20260902201442 65 322 0.0 0.9 0.00 0.00 0.00 68 1019.9
20260902201227 65 322 0.0 0.9 0.00 0.00 0.00 68 1020.0
20260902201127 65 322 0.0 0.9 0.00 0.00 0.00 69 1019.9
20260902201027 65 322 0.0 0.9 0.00 0.00 0.00 69 1020.0
20260902200953 66 322 0.0 0.9 0.00 0.00 0.00 69 1019.9
20260902200945 65 322 0.0 0.9 0.00 0.00 0.00 69 1019.9
20260902200941 65 322 0.0 0.9 0.00 0.00 0.00 69 1019.9
20260902200723 66 322 0.0 0.9 0.00 0.00 0.00 69 1019.9
20260902200622 66 322 0.0 0.9 0.00 0.00 0.00 69 1019.9
20260902200522 66 322 0.0 0.9 0.00 0.00 0.00 69 1019.9
20260902200422 66 322 0.0 0.0 0.00 0.00 0.00 68 1019.9
20260902200322 66 322 0.0 0.0 0.00 0.00 0.00 68 1019.9
20260902200223 66 322 0.0 0.0 0.00 0.00 0.00 68 1019.9
20260902200123 66 322 0.0 0.0 0.00 0.00 0.00 68 1019.9
20260902200023 66 322 0.0 0.0 0.00 0.00 0.00 68 1019.9
20260902195923 66 322 0.0 0.0 0.00 0.00 0.00 68 1019.9
20260902195823 66 322 0.0 0.0 0.00 0.00 0.00 68 1019.9
20260902195722 66 322 0.0 0.0 0.00 0.00 0.00 68 1019.9
20260902195622 66 322 0.0 0.0 0.00 0.00 0.00 68 1019.9
20260902195522 66 322 0.0 0.0 0.00 0.00 0.00 67 1019.9
20260902195423 66 322 0.0 0.0 0.00 0.00 0.00 68 1019.9
20260902195322 66 322 0.0 0.0 0.00 0.00 0.00 68 1019.9
20260902195222 66 322 0.0 0.0 0.00 0.00 0.00 68 1019.9
20260902195122 66 322 0.0 0.0 0.00 0.00 0.00 67 1019.9
20260902195022 66 322 0.0 0.0 0.00 0.00 0.00 67 1019.9
20260902194923 66 322 0.0 0.0 0.00 0.00 0.00 67 1019.9
20260902194819 66 322 0.0 0.0 0.00 0.00 0.00 67 1019.9
20260902194719 66 322 0.0 0.0 0.00 0.00 0.00 67 1019.9
20260902194619 66 322 0.0 0.9 0.00 0.00 0.00 67 1019.9
20260902194518 67 322 0.0 0.9 0.00 0.00 0.00 67 1019.9
20260902194419 67 322 0.0 0.9 0.00 0.00 0.00 67 1019.9
20260902194319 67 322 0.0 0.9 0.00 0.00 0.00 67 1019.9
20260902194218 67 322 0.0 0.9 0.00 0.00 0.00 66 1019.9
20260902194118 67 322 0.0 0.9 0.00 0.00 0.00 67 1019.9
20260902194018 67 322 0.0 0.9 0.00 0.00 0.00 66 1019.8
20260902193918 67 322 0.0 0.9 0.00 0.00 0.00 66 1019.9
20260902193818 67 322 0.0 0.9 0.00 0.00 0.00 66 1019.8
20260902193729 67 322 0.0 0.9 0.00 0.00 0.00 66 1019.8
20260902193718 67 322 0.9 1.7 0.00 0.00 0.00 66 1019.8
20260902193618 67 322 0.9 1.7 0.00 0.00 0.00 66 1019.8
20260902193518 67 322 0.9 1.7 0.00 0.00 0.00 66 1019.8
20260902193455 67 322 0.9 1.7 0.00 0.00 0.00 66 1019.8
20260902193450 67 322 0.9 1.7 0.00 0.00 0.00 66 1019.8
20260902193442 67 322 0.9 1.7 0.00 0.00 0.00 65 1019.8
20260902193218 67 322 0.9 1.7 0.00 0.00 0.00 66 1019.8
20260902193118 67 322 0.9 1.7 0.00 0.00 0.00 65 1019.9
20260902193019 67 322 0.9 1.7 0.00 0.00 0.00 65 1019.8
20260902192955 67 322 0.0 1.7 0.00 0.00 0.00 65 1019.8
20260902192946 67 322 0.0 1.7 0.00 0.00 0.00 65 1019.8
20260902192939 67 322 0.0 1.7 0.00 0.00 0.00 65 1019.8
20260902192715 67 322 0.0 1.7 0.00 0.00 0.00 65 1019.8
20260902192615 67 322 0.0 1.7 0.00 0.00 0.00 65 1019.8
20260902192515 67 322 0.0 0.9 0.00 0.00 0.00 65 1019.8
20260902192415 67 322 0.0 0.9 0.00 0.00 0.00 65 1019.8
20260902192315 67 322 0.0 0.9 0.00 0.00 0.00 65 1019.8
20260902192229 67 322 0.0 0.9 0.00 0.00 0.00 65 1019.8
20260902192216 67 322 0.0 0.9 0.00 0.00 0.00 64 1019.8
20260902192114 67 322 0.0 1.7 0.00 0.00 0.00 65 1019.8
20260902192014 67 322 0.9 1.7 0.00 0.00 0.00 64 1019.8
20260902191914 67 322 0.9 1.7 0.00 0.00 0.00 64 1019.8
20260902191815 67 322 0.9 1.7 0.00 0.00 0.00 64 1019.8
20260902191714 67 322 0.9 1.7 0.00 0.00 0.00 64 1019.8
20260902191614 67 322 0.9 1.7 0.00 0.00 0.00 64 1019.7
20260902191514 67 322 0.9 1.7 0.00 0.00 0.00 63 1019.7
20260902191414 67 322 0.9 1.7 0.00 0.00 0.00 63 1019.7
20260902191314 68 322 0.9 1.7 0.00 0.00 0.00 63 1019.7
20260902191214 68 322 0.9 1.7 0.00 0.00 0.00 63 1019.7
20260902191115 68 322 0.9 1.7 0.00 0.00 0.00 63 1019.7
20260902191011 68 322 0.9 1.7 0.00 0.00 0.00 63 1019.5
20260902190911 68 322 0.9 1.7 0.00 0.00 0.00 63 1019.7
20260902190811 68 322 0.9 1.7 0.00 0.00 0.00 63 1019.7
20260902190710 68 322 0.9 1.7 0.00 0.00 0.00 63 1019.7
20260902190610 68 322 0.9 1.7 0.00 0.00 0.00 63 1019.5
20260902190510 68 322 0.9 1.7 0.00 0.00 0.00 62 1019.5
20260902190410 68 322 0.9 1.7 0.00 0.00 0.00 62 1019.5
20260902190310 68 322 0.9 1.7 0.00 0.00 0.00 62 1019.5
20260902190210 68 322 0.9 1.7 0.00 0.00 0.00 62 1019.5
20260902190110 68 322 0.9 1.7 0.00 0.00 0.00 62 1019.5
20260902190011 68 322 0.9 1.7 0.00 0.00 0.00 62 1019.5
20260902185911 68 322 0.9 1.7 0.00 0.00 0.00 62 1019.5
20260902185811 68 322 0.9 1.7 0.00 0.00 0.00 63 1019.5
20260902185729 68 322 0.9 1.7 0.00 0.00 0.00 62 1019.5
20260902185711 68 322 0.9 2.6 0.00 0.00 0.00 62 1019.4
20260902185611 68 322 0.9 2.6 0.00 0.00 0.00 62 1019.5
20260902185510 68 322 1.7 3.5 0.00 0.00 0.00 62 1019.4
20260902185410 68 322 1.7 3.5 0.00 0.00 0.00 62 1019.4
20260902185310 68 322 1.7 3.5 0.00 0.00 0.00 61 1019.4
20260902185229 68 322 1.7 3.5 0.00 0.00 0.00 61 1019.4
20260902185210 69 322 1.7 3.5 0.00 0.00 0.00 61 1019.3
20260902185110 69 322 0.9 3.5 0.00 0.00 0.00 61 1019.3
20260902185010 69 322 1.7 3.5 0.00 0.00 0.00 61 1019.3
20260902184910 69 322 1.7 3.5 0.00 0.00 0.00 61 1019.3
20260902184810 69 322 1.7 3.5 0.00 0.00 0.00 60 1019.3
20260902184710 69 322 1.7 3.5 0.00 0.00 0.00 61 1019.3
20260902184608 69 322 1.7 3.5 0.00 0.00 0.00 61 1019.3
20260902184509 69 300 1.7 2.6 0.00 0.00 0.00 60 1019.3
20260902184407 69 300 1.7 3.5 0.00 0.00 0.00 60 1019.3
20260902184306 69 274 1.7 3.5 0.00 0.00 0.00 60 1019.3
20260902184207 69 274 1.7 3.5 0.00 0.00 0.00 60 1019.3
20260902184105 69 274 1.7 3.5 0.00 0.00 0.00 60 1019.2
20260902184003 69 274 1.7 3.5 0.00 0.00 0.00 60 1019.3
20260902183903 69 274 0.9 3.5 0.00 0.00 0.00 60 1019.2
20260902183803 69 274 0.9 3.5 0.00 0.00 0.00 61 1019.3
20260902183729 69 274 0.9 3.5 0.00 0.00 0.00 61 1019.3
20260902183702 69 288 0.9 3.5 0.00 0.00 0.00 61 1019.2
20260902183601 69 293 0.9 3.5 0.00 0.00 0.00 61 1019.3
20260902183501 69 302 0.9 3.5 0.00 0.00 0.00 61 1019.2
20260902183402 69 309 0.9 3.5 0.00 0.00 0.00 61 1019.2
20260902183301 69 310 0.9 3.5 0.00 0.00 0.00 61 1019.1
20260902183216 69 310 1.7 3.5 0.00 0.00 0.00 60 1019.1
20260902183212 69 310 0.9 3.5 0.00 0.00 0.00 60 1019.1
20260902183208 69 310 0.9 3.5 0.00 0.00 0.00 60 1019.1
20260902183204 69 310 0.9 3.5 0.00 0.00 0.00 60 1019.1
20260902182948 69 310 0.9 3.5 0.00 0.00 0.00 61 1019.1
20260902182940 69 310 1.7 3.5 0.00 0.00 0.00 60 1019.1
20260902182656 69 310 1.7 3.5 0.00 0.00 0.00 60 1019.1
20260902182554 70 310 1.7 3.5 0.00 0.00 0.00 59 1019.1
20260902182457 70 310 1.7 7.0 0.00 0.00 0.00 59 1019.0
20260902182453 70 310 1.7 3.5 0.00 0.00 0.00 59 1019.1
20260902182449 70 310 1.7 3.5 0.00 0.00 0.00 59 1019.1
20260902182441 70 310 1.7 5.2 0.00 0.00 0.00 58 1019.0
20260902182148 70 310 1.7 7.0 0.00 0.00 0.00 59 1019.1
20260902182048 70 310 2.6 7.0 0.00 0.00 0.00 58 1019.1
20260902181945 70 310 2.6 7.0 0.00 0.00 0.00 58 1019.0
20260902181842 70 310 2.6 7.0 0.00 0.00 0.00 58 1019.0
20260902181729 70 308 2.6 7.0 0.00 0.00 0.00 58 1019.0
20260902181642 70 308 2.6 7.0 0.00 0.00 0.00 58 1019.0
20260902181542 70 308 2.6 7.0 0.00 0.00 0.00 58 1019.0
20260902181440 70 307 2.6 7.0 0.00 0.00 0.00 57 1019.0
20260902181337 70 318 2.6 7.0 0.00 0.00 0.00 57 1019.1
20260902181234 70 320 1.7 7.0 0.00 0.00 0.00 57 1019.1
20260902181228 70 319 1.7 7.0 0.00 0.00 0.00 57 1019.1
20260902181134 70 293 1.7 3.5 0.00 0.00 0.00 56 1019.0
20260902181034 70 244 1.7 2.6 0.00 0.00 0.00 55 1018.9
20260902180933 70 244 1.7 2.6 0.00 0.00 0.00 55 1018.9
20260902180832 70 244 1.7 2.6 0.00 0.00 0.00 55 1018.9
20260902180728 70 243 1.7 2.6 0.00 0.00 0.00 55 1018.9
20260902180719 70 238 0.9 2.6 0.00 0.00 0.00 54 1018.8
20260902180708 70 243 1.7 2.6 0.00 0.00 0.00 54 1018.8
20260902180704 70 244 0.9 2.6 0.00 0.00 0.00 55 1018.8
20260902180449 70 238 0.9 2.6 0.00 0.00 0.00 54 1018.8
20260902180441 70 238 0.9 2.6 0.00 0.00 0.00 54 1018.8
20260902180222 70 238 0.9 2.6 0.00 0.00 0.00 54 1018.8
20260902180122 70 238 0.9 2.6 0.00 0.00 0.00 55 1018.8
20260902180022 70 238 0.9 2.6 0.00 0.00 0.00 54 1018.8
20260902175922 70 238 0.9 2.6 0.00 0.00 0.00 54 1018.8
20260902175819 71 238 0.9 2.6 0.00 0.00 0.00 54 1018.8
20260902175732 71 238 0.9 2.6 0.00 0.00 0.00 55 1018.8
20260902175718 70 238 0.9 2.6 0.00 0.00 0.00 55 1018.8
20260902175618 70 238 0.9 2.6 0.00 0.00 0.00 54 1018.7
20260902175518 71 238 0.9 2.6 0.00 0.00 0.00 54 1018.7
20260902175416 71 238 0.9 2.6 0.00 0.00 0.00 54 1018.7
20260902175312 71 238 0.9 2.6 0.00 0.00 0.00 54 1018.7
20260902175220 71 242 0.9 2.6 0.00 0.00 0.00 54 1018.6
20260902175215 71 238 0.9 2.6 0.00 0.00 0.00 54 1018.7
20260902175212 71 239 0.9 2.6 0.00 0.00 0.00 54 1018.7
20260902175207 71 239 0.9 2.6 0.00 0.00 0.00 54 1018.6
20260902174949 71 239 0.9 2.6 0.00 0.00 0.00 54 1018.6
20260902174940 71 242 0.9 2.6 0.00 0.00 0.00 54 1018.6
20260902174709 71 242 1.7 2.6 0.00 0.00 0.00 54 1018.6
20260902174609 71 242 1.7 2.6 0.00 0.00 0.00 54 1018.5
20260902174506 71 242 1.7 2.6 0.00 0.00 0.00 54 1018.6
20260902174406 71 243 1.7 2.6 0.00 0.00 0.00 53 1018.5
20260902174307 71 243 1.7 2.6 0.00 0.00 0.00 54 1018.5
20260902174204 71 243 1.7 2.6 0.00 0.00 0.00 54 1018.5
20260902174104 71 243 1.7 2.6 0.00 0.00 0.00 54 1018.5
20260902174002 71 243 1.7 2.6 0.00 0.00 0.00 54 1018.5
20260902173902 71 244 1.7 2.6 0.00 0.00 0.00 54 1018.5
20260902173801 71 243 1.7 2.6 0.00 0.00 0.00 54 1018.5
20260902173729 71 244 1.7 3.5 0.00 0.00 0.00 54 1018.5
20260902173702 71 244 1.7 3.5 0.00 0.00 0.00 53 1018.5
20260902173602 71 227 1.7 3.5 0.00 0.00 0.00 53 1018.4
20260902173501 71 227 1.7 3.5 0.00 0.00 0.00 54 1018.5
20260902173401 71 227 1.7 3.5 0.00 0.00 0.00 53 1018.4
20260902173302 71 227 1.7 3.5 0.00 0.00 0.00 53 1018.4
20260902173229 71 227 1.7 3.5 0.00 0.00 0.00 53 1018.4
20260902173201 71 225 1.7 3.5 0.00 0.00 0.00 53 1018.4
20260902173101 71 225 1.7 3.5 0.00 0.00 0.00 52 1018.4
20260902173001 72 225 1.7 3.5 0.00 0.00 0.00 53 1018.4
20260902172901 72 225 1.7 3.5 0.00 0.00 0.00 52 1018.4
20260902172801 72 225 1.7 3.5 0.00 0.00 0.00 53 1018.4
20260902172701 72 225 1.7 3.5 0.00 0.00 0.00 53 1018.4
20260902172601 72 225 2.6 3.5 0.00 0.00 0.00 53 1018.4
20260902172504 72 234 1.7 3.5 0.00 0.00 0.00 53 1018.4
20260902172500 72 255 2.6 4.3 0.00 0.00 0.00 53 1018.4
20260902172449 72 254 1.7 3.5 0.00 0.00 0.00 53 1018.4
20260902172441 72 254 2.6 3.5 0.00 0.00 0.00 53 1018.4
20260902172200 72 255 2.6 4.3 0.00 0.00 0.00 53 1018.4
20260902172101 72 257 2.6 6.1 0.00 0.00 0.00 53 1018.3
20260902172001 72 258 2.6 6.1 0.00 0.00 0.00 52 1018.3
20260902171901 72 258 2.6 6.1 0.00 0.00 0.00 53 1018.4
20260902171800 72 258 2.6 6.1 0.00 0.00 0.00 53 1018.3
20260902171728 72 248 2.6 6.1 0.00 0.00 0.00 53 1018.3
20260902171703 72 248 2.6 6.1 0.00 0.00 0.00 53 1018.4
20260902171602 72 248 2.6 6.1 0.00 0.00 0.00 52 1018.4
20260902171501 72 247 2.6 6.1 0.00 0.00 0.00 52 1018.4
20260902171401 72 247 2.6 6.1 0.00 0.00 0.00 51 1018.4
20260902171300 73 246 2.6 6.1 0.00 0.00 0.00 52 1018.4
20260902171229 73 267 2.6 6.1 0.00 0.00 0.00 52 1018.4
20260902171202 73 270 2.6 6.1 0.00 0.00 0.00 52 1018.4
20260902171100 73 269 1.7 6.1 0.00 0.00 0.00 52 1018.4
20260902171001 73 256 2.6 6.1 0.00 0.00 0.00 52 1018.4
20260902170900 73 254 2.6 6.1 0.00 0.00 0.00 52 1018.4
20260902170800 73 247 1.7 6.1 0.00 0.00 0.00 52 1018.4
20260902170730 73 246 1.7 6.1 0.00 0.00 0.00 52 1018.4
20260902170700 73 251 1.7 6.1 0.00 0.00 0.00 52 1018.4
20260902170558 73 259 1.7 6.1 0.00 0.00 0.00 51 1018.4
20260902170458 73 249 1.7 3.5 0.00 0.00 0.00 51 1018.4
20260902170355 73 251 1.7 5.2 0.00 0.00 0.00 51 1018.4
20260902170229 73 251 2.6 5.2 0.00 0.00 0.00 52 1018.4
20260902170154 73 251 2.6 5.2 0.00 0.00 0.00 51 1018.4
20260902170052 73 244 2.6 5.2 0.00 0.00 0.00 51 1018.4
20260902165952 73 244 2.6 6.1 0.00 0.00 0.00 51 1018.4
20260902165852 73 261 2.6 6.1 0.00 0.00 0.00 51 1018.4
20260902165729 73 261 2.6 6.1 0.00 0.00 0.00 51 1018.4
20260902165650 73 261 2.6 6.1 0.00 0.00 0.00 51 1018.4
20260902165550 73 262 2.6 6.1 0.00 0.00 0.00 50 1018.4
20260902165450 74 264 2.6 6.1 0.00 0.00 0.00 51 1018.4
20260902165349 74 254 2.6 6.1 0.00 0.00 0.00 50 1018.4
20260902165246 74 287 2.6 6.1 0.00 0.00 0.00 50 1018.4
20260902165228 74 256 2.6 6.1 0.00 0.00 0.00 50 1018.4
20260902165146 74 253 2.6 6.1 0.00 0.00 0.00 51 1018.4
20260902165044 74 271 2.6 6.1 0.00 0.00 0.00 50 1018.3
20260902165003 74 249 3.5 6.1 0.00 0.00 0.00 50 1018.3
20260902164951 74 248 2.6 6.1 0.00 0.00 0.00 50 1018.4
20260902164947 74 248 3.5 6.1 0.00 0.00 0.00 50 1018.3
20260902164940 74 248 3.5 6.1 0.00 0.00 0.00 50 1018.3
20260902164640 74 227 3.5 6.1 0.00 0.00 0.00 50 1018.4
20260902164538 74 241 3.5 6.1 0.00 0.00 0.00 50 1018.4
20260902164436 74 248 3.5 6.1 0.00 0.00 0.00 50 1018.4
20260902164336 74 236 3.5 6.1 0.00 0.00 0.00 50 1018.3
20260902164234 74 269 3.5 6.1 0.00 0.00 0.00 49 1018.4
20260902164228 74 271 3.5 6.1 0.00 0.00 0.00 49 1018.4
20260902164134 74 268 3.5 6.1 0.00 0.00 0.00 50 1018.4
20260902164032 74 271 3.5 7.0 0.00 0.00 0.00 49 1018.4
20260902163930 74 263 3.5 7.0 0.00 0.00 0.00 49 1018.4
20260902163830 74 275 3.5 7.0 0.00 0.00 0.00 50 1018.3
20260902163729 74 268 3.5 7.0 0.00 0.00 0.00 49 1018.4
20260902163629 74 258 3.5 7.0 0.00 0.00 0.00 49 1018.4
20260902163529 74 263 3.5 7.0 0.00 0.00 0.00 48 1018.3
20260902163429 74 264 3.5 7.0 0.00 0.00 0.00 49 1018.3
20260902163329 74 278 2.6 7.0 0.00 0.00 0.00 49 1018.3
20260902163229 74 269 2.6 7.0 0.00 0.00 0.00 49 1018.3
20260902163126 74 258 2.6 5.2 0.00 0.00 0.00 49 1018.3
20260902163026 75 255 2.6 6.1 0.00 0.00 0.00 50 1018.3
20260902162926 75 225 2.6 6.1 0.00 0.00 0.00 50 1018.3
20260902162826 75 271 3.5 7.0 0.00 0.00 0.00 49 1018.2
20260902162730 75 281 3.5 7.0 0.00 0.00 0.00 48 1018.2
20260902162724 75 257 3.5 7.0 0.00 0.00 0.00 48 1018.3
20260902162620 75 250 3.5 7.0 0.00 0.00 0.00 48 1018.3
20260902162520 75 250 3.5 7.0 0.00 0.00 0.00 48 1018.3
20260902162420 75 251 3.5 7.0 0.00 0.00 0.00 48 1018.3
20260902162320 75 246 4.3 7.0 0.00 0.00 0.00 48 1018.3
20260902162229 75 246 4.3 7.8 0.00 0.00 0.00 48 1018.3
20260902162218 75 263 4.3 7.8 0.00 0.00 0.00 48 1018.4
20260902162112 75 238 4.3 8.7 0.00 0.00 0.00 48 1018.4
20260902162013 75 285 4.3 8.7 0.00 0.00 0.00 48 1018.4
20260902161912 75 269 4.3 8.7 0.00 0.00 0.00 48 1018.4
20260902161812 75 252 4.3 8.7 0.00 0.00 0.00 48 1018.4
20260902161729 75 270 4.3 8.7 0.00 0.00 0.00 48 1018.4
20260902161711 75 269 4.3 8.7 0.00 0.00 0.00 48 1018.4
20260902161607 75 275 5.2 8.7 0.00 0.00 0.00 47 1018.3
20260902161506 75 296 4.3 8.7 0.00 0.00 0.00 47 1018.3
20260902161406 75 260 4.3 8.7 0.00 0.00 0.00 47 1018.3
20260902161306 75 268 4.3 8.7 0.00 0.00 0.00 47 1018.3
20260902161228 75 244 4.3 8.7 0.00 0.00 0.00 47 1018.3
20260902161206 75 275 4.3 8.7 0.00 0.00 0.00 47 1018.3
20260902161102 75 270 4.3 7.8 0.00 0.00 0.00 47 1018.3
20260902161002 75 269 3.5 7.8 0.00 0.00 0.00 46 1018.3
20260902160902 75 272 3.5 7.0 0.00 0.00 0.00 46 1018.3
20260902160802 75 240 3.5 7.0 0.00 0.00 0.00 47 1018.3
20260902160729 75 276 3.5 7.0 0.00 0.00 0.00 47 1018.3
20260902160721 75 284 3.5 8.7 0.00 0.00 0.00 47 1018.2
20260902160716 75 268 3.5 7.0 0.00 0.00 0.00 47 1018.2
20260902160712 75 269 3.5 7.8 0.00 0.00 0.00 47 1018.2
20260902160708 75 273 3.5 7.8 0.00 0.00 0.00 47 1018.2
20260902160448 75 263 3.5 7.8 0.00 0.00 0.00 47 1018.2
20260902160444 75 275 3.5 7.8 0.00 0.00 0.00 47 1018.2
20260902160201 75 286 3.5 8.7 0.00 0.00 0.00 47 1018.2
20260902160001 75 257 4.3 8.7 0.00 0.00 0.00 47 1018.2
20260902155901 75 232 3.5 8.7 0.00 0.00 0.00 46 1018.2
20260902155801 75 284 3.5 8.7 0.00 0.00 0.00 47 1018.2
20260902155732 75 208 3.5 8.7 0.00 0.00 0.00 47 1018.2
20260902155701 75 250 3.5 8.7 0.00 0.00 0.00 47 1018.3
20260902155601 75 238 3.5 8.7 0.00 0.00 0.00 47 1018.2
20260902155507 75 234 3.5 7.8 0.00 0.00 0.00 48 1018.2
20260902155501 75 275 3.5 8.7 0.00 0.00 0.00 48 1018.2
20260902155448 75 244 3.5 8.7 0.00 0.00 0.00 48 1018.2
20260902155444 75 236 3.5 8.7 0.00 0.00 0.00 48 1018.2
20260902155201 75 223 3.5 7.8 0.00 0.00 0.00 49 1018.2
20260902155100 75 267 3.5 7.8 0.00 0.00 0.00 49 1018.2
20260902155000 75 250 3.5 7.8 0.00 0.00 0.00 47 1018.2
20260902154900 75 270 3.5 7.8 0.00 0.00 0.00 47 1018.2
20260902154800 75 274 4.3 7.8 0.00 0.00 0.00 48 1018.2
20260902154729 75 279 4.3 7.8 0.00 0.00 0.00 48 1018.2
20260902154700 75 268 4.3 8.7 0.00 0.00 0.00 48 1018.2
20260902154600 75 279 4.3 10.4 0.00 0.00 0.00 47 1018.2
20260902154500 75 239 4.3 10.4 0.00 0.00 0.00 47 1018.2
20260902154400 75 276 5.2 10.4 0.00 0.00 0.00 47 1018.1
20260902154300 75 272 4.3 10.4 0.00 0.00 0.00 47 1018.1
20260902154228 75 269 4.3 10.4 0.00 0.00 0.00 47 1018.1
20260902154200 75 265 5.2 10.4 0.00 0.00 0.00 47 1018.1
20260902154100 75 272 5.2 10.4 0.00 0.00 0.00 47 1018.1
20260902154001 75 267 5.2 10.4 0.00 0.00 0.00 48 1018.1
20260902153901 75 199 5.2 10.4 0.00 0.00 0.00 47 1018.2
20260902153802 75 254 5.2 10.4 0.00 0.00 0.00 45 1018.2
20260902153729 75 225 5.2 10.4 0.00 0.00 0.00 45 1018.2
20260902153701 75 198 4.3 10.4 0.00 0.00 0.00 45 1018.2
20260902153600 75 188 4.3 9.6 0.00 0.00 0.00 45 1018.1
20260902153500 75 205 4.3 9.6 0.00 0.00 0.00 47 1018.1
20260902153359 75 238 4.3 9.6 0.00 0.00 0.00 47 1018.2
20260902153259 76 236 4.3 7.0 0.00 0.00 0.00 49 1018.2
20260902153229 76 203 4.3 7.0 0.00 0.00 0.00 49 1018.2
20260902153153 76 220 4.3 7.0 0.00 0.00 0.00 49 1018.1
20260902153054 76 216 4.3 7.0 0.00 0.00 0.00 48 1018.2
20260902152954 76 211 4.3 7.0 0.00 0.00 0.00 47 1018.2
20260902152854 76 200 4.3 7.0 0.00 0.00 0.00 47 1018.2
20260902152754 76 221 4.3 7.0 0.00 0.00 0.00 47 1018.2
20260902152728 76 226 4.3 7.8 0.00 0.00 0.00 47 1018.2
20260902152648 76 234 4.3 9.6 0.00 0.00 0.00 47 1018.2
20260902152548 76 242 4.3 9.6 0.00 0.00 0.00 46 1018.2
20260902152448 76 229 4.3 9.6 0.00 0.00 0.00 46 1018.3
20260902152348 76 219 4.3 9.6 0.00 0.00 0.00 46 1018.3
20260902152248 76 223 4.3 9.6 0.00 0.00 0.00 45 1018.3
20260902152230 76 213 4.3 9.6 0.00 0.00 0.00 45 1018.3
20260902152144 76 288 5.2 9.6 0.00 0.00 0.00 46 1018.3
20260902152044 76 254 5.2 9.6 0.00 0.00 0.00 46 1018.3
20260902151944 76 234 5.2 9.6 0.00 0.00 0.00 45 1018.3
20260902151844 76 252 5.2 9.6 0.00 0.00 0.00 46 1018.3
20260902151742 76 248 6.1 9.6 0.00 0.00 0.00 46 1018.4
20260902151728 76 229 6.1 9.6 0.00 0.00 0.00 46 1018.4
20260902151636 76 276 6.1 12.2 0.00 0.00 0.00 45 1018.3
20260902151536 76 269 6.1 12.2 0.00 0.00 0.00 44 1018.3
20260902151454 76 267 5.2 12.2 0.00 0.00 0.00 44 1018.4
20260902151448 76 285 6.1 12.2 0.00 0.00 0.00 44 1018.3
20260902151444 76 263 5.2 12.2 0.00 0.00 0.00 44 1018.3
20260902151440 76 259 5.2 12.2 0.00 0.00 0.00 44 1018.4
20260902151129 76 265 6.1 12.2 0.00 0.00 0.00 44 1018.3
20260902151030 76 258 5.2 12.2 0.00 0.00 0.00 45 1018.4
20260902150930 76 263 5.2 12.2 0.00 0.00 0.00 44 1018.4
20260902150829 76 229 5.2 12.2 0.00 0.00 0.00 44 1018.4
20260902150729 77 226 5.2 12.2 0.00 0.00 0.00 44 1018.4
20260902150630 77 210 5.2 9.6 0.00 0.00 0.00 44 1018.4
20260902150529 77 240 5.2 9.6 0.00 0.00 0.00 44 1018.4
20260902150429 77 231 4.3 9.6 0.00 0.00 0.00 44 1018.4
20260902150329 77 258 4.3 9.6 0.00 0.00 0.00 44 1018.4
20260902150229 77 258 4.3 9.6 0.00 0.00 0.00 44 1018.4
20260902150224 77 281 4.3 9.6 0.00 0.00 0.00 44 1018.4
20260902150129 77 279 4.3 8.7 0.00 0.00 0.00 43 1018.4
20260902150030 77 217 4.3 8.7 0.00 0.00 0.00 46 1018.4
20260902145929 77 251 4.3 8.7 0.00 0.00 0.00 46 1018.4
20260902145829 77 242 5.2 8.7 0.00 0.00 0.00 45 1018.4
20260902145729 77 239 5.2 8.7 0.00 0.00 0.00 45 1018.4
20260902145717 77 223 5.2 8.7 0.00 0.00 0.00 45 1018.4
20260902145629 77 225 5.2 8.7 0.00 0.00 0.00 44 1018.4
20260902145529 77 237 5.2 8.7 0.00 0.00 0.00 46 1018.4
20260902145429 77 219 5.2 8.7 0.00 0.00 0.00 44 1018.4
20260902145328 77 252 5.2 8.7 0.00 0.00 0.00 45 1018.3
20260902145228 77 249 5.2 8.7 0.00 0.00 0.00 45 1018.4
20260902145211 77 246 5.2 8.7 0.00 0.00 0.00 45 1018.4
20260902145129 77 262 5.2 8.7 0.00 0.00 0.00 45 1018.4
20260902145029 77 267 4.3 8.7 0.00 0.00 0.00 46 1018.3
20260902144925 77 215 4.3 8.7 0.00 0.00 0.00 46 1018.3
20260902144824 77 215 4.3 8.7 0.00 0.00 0.00 46 1018.3
20260902144724 77 221 4.3 8.7 0.00 0.00 0.00 47 1018.3
20260902144711 77 227 4.3 8.7 0.00 0.00 0.00 48 1018.3
20260902144624 77 288 4.3 8.7 0.00 0.00 0.00 48 1018.3
20260902144524 77 254 4.3 7.8 0.00 0.00 0.00 46 1018.3
20260902144440 77 214 4.3 8.7 0.00 0.00 0.00 47 1018.4
20260902144430 77 230 4.3 8.7 0.00 0.00 0.00 46 1018.4
20260902144425 77 212 4.3 8.7 0.00 0.00 0.00 48 1018.4
20260902144421 77 211 4.3 8.7 0.00 0.00 0.00 47 1018.4
20260902144118 77 195 4.3 8.7 0.00 0.00 0.00 47 1018.3
20260902144018 77 230 4.3 8.7 0.00 0.00 0.00 47 1018.4
20260902143938 77 222 4.3 8.7 0.00 0.00 0.00 48 1018.4
20260902143930 77 225 4.3 8.7 0.00 0.00 0.00 47 1018.4
20260902143926 77 248 4.3 8.7 0.00 0.00 0.00 47 1018.4
20260902143922 77 227 4.3 8.7 0.00 0.00 0.00 48 1018.4
20260902143612 77 221 4.3 8.7 0.00 0.00 0.00 48 1018.4
20260902143511 77 227 4.3 8.7 0.00 0.00 0.00 48 1018.4
20260902143406 77 234 4.3 9.6 0.00 0.00 0.00 47 1018.4
20260902143306 77 213 5.2 9.6 0.00 0.00 0.00 46 1018.4
20260902143210 77 237 5.2 9.6 0.00 0.00 0.00 45 1018.4
20260902143206 77 242 5.2 9.6 0.00 0.00 0.00 45 1018.4
20260902143143 77 265 4.3 12.2 0.00 0.00 0.00 46 1018.4
20260902143139 78 196 6.1 12.2 0.00 0.00 0.00 46 1018.4
20260902143135 77 221 5.2 9.6 0.00 0.00 0.00 45 1018.4
20260902143131 77 224 6.1 9.6 0.00 0.00 0.00 44 1018.4
20260902143127 77 217 6.1 10.4 0.00 0.00 0.00 44 1018.4
20260902143123 77 215 6.1 12.2 0.00 0.00 0.00 45 1018.4
20260902142906 77 213 6.1 12.2 0.00 0.00 0.00 46 1018.4
20260902142647 77 324 6.1 12.2 0.00 0.00 0.00 45 1018.4
20260902142643 77 274 6.1 12.2 0.00 0.00 0.00 46 1018.5
20260902142425 77 202 5.2 12.2 0.00 0.00 0.00 47 1018.5
20260902142421 77 258 5.2 12.2 0.00 0.00 0.00 47 1018.5
20260902142204 77 261 4.3 12.2 0.00 0.00 0.00 46 1018.4
20260902142104 77 257 4.3 12.2 0.00 0.00 0.00 47 1018.4
20260902142002 77 261 3.5 12.2 0.00 0.00 0.00 46 1018.5
20260902141902 77 240 3.5 12.2 0.00 0.00 0.00 47 1018.4
20260902141802 77 221 3.5 11.3 0.00 0.00 0.00 47 1018.4
20260902141711 77 225 3.5 7.0 0.00 0.00 0.00 47 1018.4
20260902141702 77 209 3.5 7.0 0.00 0.00 0.00 47 1018.4
20260902141602 77 255 3.5 7.0 0.00 0.00 0.00 46 1018.4
20260902141502 77 245 3.5 7.8 0.00 0.00 0.00 46 1018.4
20260902141431 77 265 4.3 7.8 0.00 0.00 0.00 46 1018.4
20260902141425 77 246 3.5 7.8 0.00 0.00 0.00 45 1018.4
20260902141421 77 213 3.5 7.8 0.00 0.00 0.00 46 1018.4
20260902141201 77 248 4.3 7.8 0.00 0.00 0.00 46 1018.4
20260902141101 77 244 4.3 7.8 0.00 0.00 0.00 46 1018.5
20260902141001 77 194 5.2 10.4 0.00 0.00 0.00 45 1018.5
20260902140901 77 244 5.2 10.4 0.00 0.00 0.00 45 1018.5
20260902140801 77 240 5.2 10.4 0.00 0.00 0.00 46 1018.5
20260902140710 77 278 5.2 10.4 0.00 0.00 0.00 45 1018.5
20260902140701 77 274 5.2 10.4 0.00 0.00 0.00 45 1018.5
20260902140601 77 249 5.2 10.4 0.00 0.00 0.00 45 1018.5
20260902140501 77 251 5.2 10.4 0.00 0.00 0.00 45 1018.5
20260902140432 78 277 5.2 10.4 0.00 0.00 0.00 45 1018.5
20260902140425 77 268 5.2 10.4 0.00 0.00 0.00 47 1018.5
20260902140421 78 221 5.2 10.4 0.00 0.00 0.00 45 1018.5
20260902140201 78 295 5.2 10.4 0.00 0.00 0.00 46 1018.5
20260902140001 78 269 4.3 9.6 0.00 0.00 0.00 47 1018.5
20260902135901 78 193 4.3 8.7 0.00 0.00 0.00 47 1018.6